Wetterdaten: Samstag, 31.01.2026
Datum Zeit Temp. Aussen Temp. o. S. Temp +5cm Feuchte Auss Luftdruck Regen Sonnenschein Regendauer Solar Windböen Empfang
31.01.2026 00:00 3,4 °C 2,8 °C -0,6 °C 93 % 998,3 hPa 0,0 l/m² 0 min 0 min 0 W/m² 19,3 km/h (3 Bft) 97,87 %
31.01.2026 00:02 3,4 °C 2,8 °C -0,6 °C 93 % 998,3 hPa 0,0 l/m² 0 min 0 min 0 W/m² 16,1 km/h (3 Bft) 95,00 %
31.01.2026 00:04 3,4 °C 2,8 °C -0,6 °C 93 % 998,3 hPa 0,0 l/m² 0 min 0 min 0 W/m² 19,3 km/h (3 Bft) 95,24 %
31.01.2026 00:07 3,4 °C 2,8 °C -0,6 °C 93 % 998,2 hPa 0,0 l/m² 0 min 0 min 0 W/m² 19,3 km/h (3 Bft) 95,24 %
31.01.2026 00:08 3,4 °C 2,8 °C -0,6 °C 93 % 998,2 hPa 0,0 l/m² 0 min 0 min 0 W/m² 19,3 km/h (3 Bft) 98,04 %
31.01.2026 00:12 3,4 °C 2,8 °C -0,6 °C 93 % 998,2 hPa 0,0 l/m² 0 min 0 min 0 W/m² 19,3 km/h (3 Bft) 100,00 %
31.01.2026 00:14 3,4 °C 2,8 °C -0,6 °C 93 % 998,2 hPa 0,0 l/m² 0 min 0 min 0 W/m² 22,5 km/h (4 Bft) 97,87 %
31.01.2026 00:16 3,4 °C 2,8 °C -0,6 °C 93 % 998,2 hPa 0,0 l/m² 0 min 0 min 0 W/m² 16,1 km/h (3 Bft) 95,74 %
31.01.2026 00:18 3,4 °C 2,8 °C -0,6 °C 93 % 998,2 hPa 0,0 l/m² 0 min 0 min 0 W/m² 19,3 km/h (3 Bft) 97,83 %
31.01.2026 00:20 3,4 °C 2,8 °C -0,6 °C 93 % 998,2 hPa 0,0 l/m² 0 min 0 min 0 W/m² 25,7 km/h (4 Bft) 97,87 %
31.01.2026 00:22 3,4 °C 2,8 °C -0,6 °C 93 % 998,2 hPa 0,0 l/m² 0 min 0 min 0 W/m² 19,3 km/h (3 Bft) 100,00 %
31.01.2026 00:24 3,4 °C 2,8 °C -0,6 °C 93 % 998,2 hPa 0,0 l/m² 0 min 0 min 0 W/m² 22,5 km/h (4 Bft) 97,83 %
31.01.2026 00:26 3,4 °C 2,8 °C -0,6 °C 93 % 998,1 hPa 0,0 l/m² 0 min 0 min 0 W/m² 22,5 km/h (4 Bft) 100,00 %
31.01.2026 00:28 3,4 °C 2,8 °C -0,6 °C 93 % 998,2 hPa 0,0 l/m² 0 min 0 min 0 W/m² 19,3 km/h (3 Bft) 97,87 %
31.01.2026 00:30 3,5 °C 2,8 °C -0,6 °C 93 % 998,2 hPa 0,0 l/m² 0 min 0 min 0 W/m² 19,3 km/h (3 Bft) 100,00 %
31.01.2026 00:32 3,5 °C 2,8 °C -0,6 °C 93 % 998,1 hPa 0,0 l/m² 0 min 0 min 0 W/m² 25,7 km/h (4 Bft) 100,00 %
31.01.2026 00:34 3,5 °C 2,8 °C -0,6 °C 93 % 998,2 hPa 0,0 l/m² 0 min 0 min 0 W/m² 19,3 km/h (3 Bft) 100,00 %
31.01.2026 00:36 3,5 °C 2,8 °C -0,6 °C 93 % 998,2 hPa 0,0 l/m² 0 min 0 min 0 W/m² 25,7 km/h (4 Bft) 95,74 %
31.01.2026 00:38 3,5 °C 2,8 °C -0,6 °C 93 % 998,2 hPa 0,0 l/m² 0 min 0 min 0 W/m² 22,5 km/h (4 Bft) 100,00 %
31.01.2026 00:40 3,5 °C 2,8 °C -0,6 °C 93 % 998,2 hPa 0,0 l/m² 0 min 0 min 0 W/m² 19,3 km/h (3 Bft) 100,00 %
31.01.2026 00:42 3,5 °C 2,8 °C -0,6 °C 93 % 998,2 hPa 0,0 l/m² 0 min 0 min 0 W/m² 29,0 km/h (5 Bft) 97,83 %
31.01.2026 00:44 3,5 °C 2,8 °C -0,6 °C 93 % 998,2 hPa 0,0 l/m² 0 min 0 min 0 W/m² 19,3 km/h (3 Bft) 100,00 %
31.01.2026 00:46 3,5 °C 2,8 °C -0,6 °C 93 % 998,2 hPa 0,0 l/m² 0 min 0 min 0 W/m² 16,1 km/h (3 Bft) 98,36 %
31.01.2026 00:48 3,5 °C 2,8 °C -0,6 °C 93 % 998,2 hPa 0,0 l/m² 0 min 0 min 0 W/m² 16,1 km/h (3 Bft) 100,00 %
31.01.2026 00:50 3,5 °C 2,8 °C -0,6 °C 93 % 998,1 hPa 0,0 l/m² 0 min 0 min 0 W/m² 16,1 km/h (3 Bft) 97,87 %
31.01.2026 00:52 3,5 °C 2,8 °C -0,6 °C 93 % 998,1 hPa 0,0 l/m² 0 min 0 min 0 W/m² 16,1 km/h (3 Bft) 100,00 %
31.01.2026 00:54 3,5 °C 2,8 °C -0,6 °C 93 % 998,2 hPa 0,0 l/m² 0 min 0 min 0 W/m² 19,3 km/h (3 Bft) 100,00 %
31.01.2026 00:56 3,5 °C 2,8 °C -0,6 °C 93 % 998,1 hPa 0,0 l/m² 0 min 0 min 0 W/m² 16,1 km/h (3 Bft) 97,87 %
31.01.2026 00:58 3,5 °C 2,8 °C -0,6 °C 93 % 998,2 hPa 0,0 l/m² 0 min 0 min 0 W/m² 19,3 km/h (3 Bft) 100,00 %
31.01.2026 01:00 3,5 °C 2,8 °C -0,6 °C 93 % 998,1 hPa 0,0 l/m² 0 min 0 min 0 W/m² 19,3 km/h (3 Bft) 97,83 %
31.01.2026 01:02 3,6 °C 2,8 °C -0,6 °C 93 % 998,2 hPa 0,0 l/m² 0 min 0 min 0 W/m² 19,3 km/h (3 Bft) 97,87 %
31.01.2026 01:04 3,6 °C 2,8 °C -0,6 °C 93 % 998,1 hPa 0,0 l/m² 0 min 0 min 0 W/m² 16,1 km/h (3 Bft) 100,00 %
31.01.2026 01:06 3,6 °C 2,8 °C -0,6 °C 93 % 998,1 hPa 0,0 l/m² 0 min 0 min 0 W/m² 32,2 km/h (5 Bft) 98,08 %
31.01.2026 01:08 3,6 °C 2,8 °C -0,6 °C 93 % 998,1 hPa 0,0 l/m² 0 min 0 min 0 W/m² 25,7 km/h (4 Bft) 100,00 %
31.01.2026 01:10 3,6 °C 2,8 °C -0,6 °C 93 % 998,0 hPa 0,0 l/m² 0 min 0 min 0 W/m² 25,7 km/h (4 Bft) 95,65 %
31.01.2026 01:12 3,6 °C 2,8 °C -0,6 °C 93 % 998,1 hPa 0,0 l/m² 0 min 0 min 0 W/m² 12,9 km/h (3 Bft) 97,87 %
31.01.2026 01:14 3,6 °C 2,8 °C -0,6 °C 93 % 998,2 hPa 0,0 l/m² 0 min 0 min 0 W/m² 16,1 km/h (3 Bft) 95,74 %
31.01.2026 01:16 3,6 °C 2,8 °C -0,6 °C 93 % 998,1 hPa 0,0 l/m² 0 min 0 min 0 W/m² 29,0 km/h (5 Bft) 95,74 %
31.01.2026 01:18 3,6 °C 2,8 °C -0,6 °C 93 % 998,1 hPa 0,0 l/m² 0 min 0 min 0 W/m² 16,1 km/h (3 Bft) 97,87 %
31.01.2026 01:20 3,6 °C 3,3 °C -0,6 °C 93 % 998,1 hPa 0,0 l/m² 0 min 0 min 0 W/m² 19,3 km/h (3 Bft) 97,87 %
31.01.2026 01:22 3,6 °C 3,3 °C -0,6 °C 93 % 998,1 hPa 0,0 l/m² 0 min 0 min 0 W/m² 16,1 km/h (3 Bft) 95,65 %
31.01.2026 01:24 3,6 °C 3,3 °C -0,6 °C 93 % 998,1 hPa 0,0 l/m² 0 min 0 min 0 W/m² 22,5 km/h (4 Bft) 97,87 %
31.01.2026 01:26 3,6 °C 3,3 °C 0,0 °C 93 % 998,2 hPa 0,0 l/m² 0 min 0 min 0 W/m² 25,7 km/h (4 Bft) 97,87 %
31.01.2026 01:28 3,6 °C 3,3 °C 0,0 °C 93 % 998,2 hPa 0,0 l/m² 0 min 0 min 0 W/m² 29,0 km/h (5 Bft) 95,74 %
31.01.2026 01:30 3,6 °C 3,3 °C 0,0 °C 93 % 998,1 hPa 0,0 l/m² 0 min 0 min 0 W/m² 19,3 km/h (3 Bft) 93,62 %
31.01.2026 01:32 3,6 °C 3,3 °C 0,0 °C 93 % 998,1 hPa 0,0 l/m² 0 min 0 min 0 W/m² 25,7 km/h (4 Bft) 91,49 %
31.01.2026 01:34 3,6 °C 3,3 °C 0,0 °C 93 % 998,1 hPa 0,0 l/m² 0 min 0 min 0 W/m² 22,5 km/h (4 Bft) 93,48 %
31.01.2026 01:36 3,6 °C 3,3 °C 0,0 °C 93 % 998,0 hPa 0,0 l/m² 0 min 0 min 0 W/m² 19,3 km/h (3 Bft) 93,62 %
31.01.2026 01:38 3,6 °C 3,3 °C 0,0 °C 93 % 998,0 hPa 0,0 l/m² 0 min 0 min 0 W/m² 29,0 km/h (5 Bft) 95,74 %
31.01.2026 01:40 3,6 °C 3,3 °C 0,0 °C 93 % 998,0 hPa 0,0 l/m² 0 min 0 min 0 W/m² 19,3 km/h (3 Bft) 95,74 %
31.01.2026 01:42 3,6 °C 3,3 °C 0,0 °C 93 % 998,0 hPa 0,0 l/m² 0 min 0 min 0 W/m² 22,5 km/h (4 Bft) 93,62 %
31.01.2026 01:44 3,6 °C 3,3 °C 0,0 °C 93 % 998,0 hPa 0,0 l/m² 0 min 0 min 0 W/m² 25,7 km/h (4 Bft) 95,65 %
31.01.2026 01:46 3,6 °C 3,3 °C 0,0 °C 93 % 997,9 hPa 0,0 l/m² 0 min 0 min 0 W/m² 25,7 km/h (4 Bft) 91,49 %
31.01.2026 01:48 3,6 °C 2,8 °C 0,0 °C 93 % 997,9 hPa 0,0 l/m² 0 min 0 min 0 W/m² 19,3 km/h (3 Bft) 93,62 %
31.01.2026 01:50 3,6 °C 2,8 °C -0,6 °C 93 % 998,0 hPa 0,0 l/m² 0 min 0 min 0 W/m² 19,3 km/h (3 Bft) 91,49 %
31.01.2026 01:52 3,6 °C 2,8 °C -0,6 °C 93 % 998,0 hPa 0,0 l/m² 0 min 0 min 0 W/m² 16,1 km/h (3 Bft) 95,74 %
31.01.2026 01:54 3,6 °C 2,8 °C -0,6 °C 93 % 998,0 hPa 0,0 l/m² 0 min 0 min 0 W/m² 22,5 km/h (4 Bft) 95,74 %
31.01.2026 01:56 3,6 °C 2,8 °C -0,6 °C 93 % 998,0 hPa 0,0 l/m² 0 min 0 min 0 W/m² 22,5 km/h (4 Bft) 93,48 %
31.01.2026 01:58 3,6 °C 2,8 °C -0,6 °C 93 % 998,0 hPa 0,0 l/m² 0 min 0 min 0 W/m² 19,3 km/h (3 Bft) 93,62 %
31.01.2026 02:00 3,6 °C 2,8 °C -0,6 °C 93 % 998,0 hPa 0,0 l/m² 0 min 0 min 0 W/m² 16,1 km/h (3 Bft) 93,62 %
31.01.2026 02:02 3,6 °C 2,8 °C -0,6 °C 93 % 998,0 hPa 0,0 l/m² 0 min 0 min 0 W/m² 16,1 km/h (3 Bft) 95,74 %
31.01.2026 02:04 3,6 °C 2,8 °C -0,6 °C 93 % 998,0 hPa 0,0 l/m² 0 min 0 min 0 W/m² 19,3 km/h (3 Bft) 95,83 %
31.01.2026 02:06 3,6 °C 2,8 °C -0,6 °C 93 % 998,1 hPa 0,0 l/m² 0 min 0 min 0 W/m² 35,4 km/h (5 Bft) 93,62 %
31.01.2026 02:08 3,6 °C 2,8 °C -0,6 °C 93 % 998,2 hPa 0,0 l/m² 0 min 0 min 0 W/m² 12,9 km/h (3 Bft) 95,74 %
31.01.2026 02:10 3,6 °C 2,8 °C -0,6 °C 93 % 998,3 hPa 0,0 l/m² 0 min 0 min 0 W/m² 12,9 km/h (3 Bft) 94,29 %
31.01.2026 02:17 3,6 °C 2,8 °C -0,6 °C 93 % 998,3 hPa 0,0 l/m² 0 min 0 min 0 W/m² 22,5 km/h (4 Bft) 100,00 %
31.01.2026 02:18 3,6 °C 2,8 °C -0,6 °C 93 % 998,3 hPa 0,0 l/m² 0 min 0 min 0 W/m² 12,9 km/h (3 Bft) 100,00 %
31.01.2026 02:20 3,6 °C 2,8 °C -0,6 °C 93 % 998,3 hPa 0,0 l/m² 0 min 0 min 0 W/m² 22,5 km/h (4 Bft) 95,74 %
31.01.2026 02:22 3,6 °C 2,8 °C -0,6 °C 93 % 998,3 hPa 0,0 l/m² 0 min 0 min 0 W/m² 16,1 km/h (3 Bft) 100,00 %
31.01.2026 02:24 3,6 °C 2,8 °C -0,6 °C 93 % 998,2 hPa 0,0 l/m² 0 min 0 min 0 W/m² 19,3 km/h (3 Bft) 97,87 %
31.01.2026 02:26 3,6 °C 2,8 °C -0,6 °C 93 % 998,3 hPa 0,0 l/m² 0 min 0 min 0 W/m² 19,3 km/h (3 Bft) 100,00 %
31.01.2026 02:28 3,6 °C 2,8 °C -0,6 °C 93 % 998,3 hPa 0,0 l/m² 0 min 0 min 0 W/m² 16,1 km/h (3 Bft) 100,00 %
31.01.2026 02:30 3,6 °C 2,8 °C -0,6 °C 93 % 998,3 hPa 0,0 l/m² 0 min 0 min 0 W/m² 19,3 km/h (3 Bft) 100,00 %
31.01.2026 02:32 3,6 °C 2,8 °C -0,6 °C 93 % 998,3 hPa 0,0 l/m² 0 min 0 min 0 W/m² 19,3 km/h (3 Bft) 97,87 %
31.01.2026 02:34 3,6 °C 2,8 °C -0,6 °C 93 % 998,3 hPa 0,0 l/m² 0 min 0 min 0 W/m² 12,9 km/h (3 Bft) 97,87 %
31.01.2026 02:36 3,6 °C 2,8 °C -0,6 °C 93 % 998,3 hPa 0,0 l/m² 0 min 0 min 0 W/m² 12,9 km/h (3 Bft) 100,00 %
31.01.2026 02:38 3,5 °C 2,8 °C -0,6 °C 93 % 998,3 hPa 0,0 l/m² 0 min 0 min 0 W/m² 19,3 km/h (3 Bft) 100,00 %
31.01.2026 02:40 3,5 °C 2,8 °C -0,6 °C 93 % 998,3 hPa 0,0 l/m² 0 min 0 min 0 W/m² 16,1 km/h (3 Bft) 97,87 %
31.01.2026 02:42 3,5 °C 2,8 °C -0,6 °C 93 % 998,3 hPa 0,0 l/m² 0 min 0 min 0 W/m² 12,9 km/h (3 Bft) 100,00 %
31.01.2026 02:44 3,5 °C 2,8 °C -0,6 °C 93 % 998,3 hPa 0,0 l/m² 0 min 0 min 0 W/m² 12,9 km/h (3 Bft) 100,00 %
31.01.2026 02:46 3,5 °C 2,8 °C -0,6 °C 93 % 998,3 hPa 0,0 l/m² 0 min 0 min 0 W/m² 12,9 km/h (3 Bft) 97,87 %
31.01.2026 02:48 3,5 °C 2,8 °C -0,6 °C 93 % 998,3 hPa 0,0 l/m² 0 min 0 min 0 W/m² 12,9 km/h (3 Bft) 100,00 %
31.01.2026 02:50 3,5 °C 2,8 °C -0,6 °C 93 % 998,2 hPa 0,0 l/m² 0 min 0 min 0 W/m² 16,1 km/h (3 Bft) 100,00 %
31.01.2026 02:52 3,5 °C 2,8 °C -0,6 °C 93 % 998,2 hPa 0,0 l/m² 0 min 0 min 0 W/m² 12,9 km/h (3 Bft) 57,45 %
31.01.2026 02:54 3,5 °C 2,8 °C -0,6 °C 93 % 998,2 hPa 0,0 l/m² 0 min 0 min 0 W/m² 12,9 km/h (3 Bft) 97,87 %
31.01.2026 02:56 3,6 °C 2,8 °C -0,6 °C 93 % 998,1 hPa 0,0 l/m² 0 min 0 min 0 W/m² 16,1 km/h (3 Bft) 100,00 %
31.01.2026 02:58 3,6 °C 3,3 °C -0,6 °C 93 % 998,2 hPa 0,0 l/m² 0 min 0 min 0 W/m² 19,3 km/h (3 Bft) 100,00 %
31.01.2026 03:00 3,6 °C 3,3 °C -0,6 °C 93 % 998,3 hPa 0,0 l/m² 0 min 0 min 0 W/m² 9,7 km/h (2 Bft) 97,87 %
31.01.2026 03:02 3,6 °C 3,3 °C 0,0 °C 93 % 998,3 hPa 0,0 l/m² 0 min 0 min 0 W/m² 12,9 km/h (3 Bft) 100,00 %
31.01.2026 03:04 3,6 °C 3,3 °C 0,0 °C 93 % 998,3 hPa 0,0 l/m² 0 min 0 min 0 W/m² 22,5 km/h (4 Bft) 100,00 %
31.01.2026 03:06 3,6 °C 3,3 °C 0,0 °C 93 % 998,2 hPa 0,0 l/m² 0 min 0 min 0 W/m² 16,1 km/h (3 Bft) 95,74 %
31.01.2026 03:08 3,6 °C 3,3 °C 0,0 °C 94 % 998,3 hPa 0,0 l/m² 0 min 0 min 0 W/m² 19,3 km/h (3 Bft) 100,00 %
31.01.2026 03:10 3,6 °C 3,3 °C 0,0 °C 94 % 998,2 hPa 0,0 l/m² 0 min 0 min 0 W/m² 22,5 km/h (4 Bft) 100,00 %
31.01.2026 03:12 3,7 °C 3,3 °C 0,0 °C 94 % 998,3 hPa 0,0 l/m² 0 min 0 min 0 W/m² 19,3 km/h (3 Bft) 100,00 %
31.01.2026 03:14 3,7 °C 3,3 °C 0,0 °C 94 % 998,3 hPa 0,0 l/m² 0 min 0 min 0 W/m² 19,3 km/h (3 Bft) 100,00 %
31.01.2026 03:16 3,7 °C 3,3 °C 0,0 °C 94 % 998,2 hPa 0,0 l/m² 0 min 0 min 0 W/m² 19,3 km/h (3 Bft) 97,87 %
31.01.2026 03:18 3,7 °C 3,3 °C 0,0 °C 94 % 998,3 hPa 0,0 l/m² 0 min 0 min 0 W/m² 16,1 km/h (3 Bft) 100,00 %
31.01.2026 03:20 3,7 °C 3,3 °C 0,0 °C 94 % 998,3 hPa 0,0 l/m² 0 min 0 min 0 W/m² 19,3 km/h (3 Bft) 100,00 %
31.01.2026 03:22 3,7 °C 3,3 °C 0,0 °C 94 % 998,2 hPa 0,0 l/m² 0 min 0 min 0 W/m² 19,3 km/h (3 Bft) 100,00 %
31.01.2026 03:24 3,7 °C 3,3 °C 0,0 °C 94 % 998,2 hPa 0,0 l/m² 0 min 0 min 0 W/m² 19,3 km/h (3 Bft) 100,00 %
31.01.2026 03:26 3,7 °C 3,3 °C 0,0 °C 94 % 998,2 hPa 0,0 l/m² 0 min 0 min 0 W/m² 16,1 km/h (3 Bft) 95,74 %
31.01.2026 03:28 3,7 °C 3,3 °C 0,0 °C 94 % 998,2 hPa 0,0 l/m² 0 min 0 min 0 W/m² 12,9 km/h (3 Bft) 100,00 %
31.01.2026 03:30 3,7 °C 3,3 °C 0,0 °C 94 % 998,2 hPa 0,0 l/m² 0 min 0 min 0 W/m² 19,3 km/h (3 Bft) 100,00 %
31.01.2026 03:32 3,8 °C 3,3 °C 0,0 °C 94 % 998,3 hPa 0,0 l/m² 0 min 0 min 0 W/m² 22,5 km/h (4 Bft) 100,00 %
31.01.2026 03:34 3,8 °C 3,3 °C 0,0 °C 94 % 998,3 hPa 0,0 l/m² 0 min 0 min 0 W/m² 22,5 km/h (4 Bft) 95,74 %
31.01.2026 03:36 3,8 °C 3,3 °C 0,0 °C 94 % 998,3 hPa 0,0 l/m² 0 min 0 min 0 W/m² 22,5 km/h (4 Bft) 97,87 %
31.01.2026 03:38 3,8 °C 3,3 °C 0,0 °C 94 % 998,3 hPa 0,0 l/m² 0 min 0 min 0 W/m² 22,5 km/h (4 Bft) 95,65 %
31.01.2026 03:40 3,8 °C 3,3 °C 0,0 °C 94 % 998,3 hPa 0,0 l/m² 0 min 0 min 0 W/m² 19,3 km/h (3 Bft) 95,74 %
31.01.2026 03:42 3,8 °C 3,3 °C 0,0 °C 94 % 998,3 hPa 0,0 l/m² 0 min 0 min 0 W/m² 19,3 km/h (3 Bft) 95,74 %
31.01.2026 03:44 3,8 °C 3,3 °C 0,0 °C 94 % 998,3 hPa 0,0 l/m² 0 min 0 min 0 W/m² 19,3 km/h (3 Bft) 95,74 %
31.01.2026 03:46 3,8 °C 3,3 °C 0,0 °C 94 % 998,3 hPa 0,0 l/m² 0 min 0 min 0 W/m² 16,1 km/h (3 Bft) 93,62 %
31.01.2026 03:48 3,8 °C 3,3 °C 0,0 °C 94 % 998,3 hPa 0,0 l/m² 0 min 0 min 0 W/m² 16,1 km/h (3 Bft) 95,74 %
31.01.2026 03:50 3,8 °C 3,3 °C 0,0 °C 94 % 998,3 hPa 0,0 l/m² 0 min 0 min 0 W/m² 16,1 km/h (3 Bft) 50,00 %
31.01.2026 03:52 3,8 °C 3,3 °C 0,0 °C 94 % 998,2 hPa 0,0 l/m² 0 min 0 min 0 W/m² 16,1 km/h (3 Bft) 95,65 %
31.01.2026 03:54 3,8 °C 3,3 °C 0,0 °C 94 % 998,2 hPa 0,0 l/m² 0 min 0 min 0 W/m² 16,1 km/h (3 Bft) 95,74 %
31.01.2026 03:56 3,8 °C 3,3 °C 0,0 °C 94 % 998,2 hPa 0,0 l/m² 0 min 0 min 0 W/m² 19,3 km/h (3 Bft) 95,74 %
31.01.2026 03:58 3,8 °C 3,3 °C 0,0 °C 94 % 998,2 hPa 0,0 l/m² 0 min 0 min 0 W/m² 16,1 km/h (3 Bft) 95,74 %
31.01.2026 04:00 3,9 °C 3,3 °C 0,0 °C 94 % 998,2 hPa 0,0 l/m² 0 min 0 min 0 W/m² 19,3 km/h (3 Bft) 93,62 %
31.01.2026 04:02 3,9 °C 3,3 °C 0,0 °C 94 % 998,3 hPa 0,0 l/m² 0 min 0 min 0 W/m² 19,3 km/h (3 Bft) 93,48 %
31.01.2026 04:04 3,9 °C 3,3 °C 0,0 °C 94 % 998,3 hPa 0,0 l/m² 0 min 0 min 0 W/m² 16,1 km/h (3 Bft) 95,83 %
31.01.2026 04:06 3,9 °C 3,3 °C 0,0 °C 94 % 998,3 hPa 0,0 l/m² 0 min 0 min 0 W/m² 19,3 km/h (3 Bft) 97,87 %
31.01.2026 04:08 3,9 °C 3,3 °C 0,0 °C 94 % 998,3 hPa 0,0 l/m² 0 min 0 min 0 W/m² 19,3 km/h (3 Bft) 95,74 %
31.01.2026 04:10 3,9 °C 3,3 °C 0,0 °C 94 % 998,3 hPa 0,0 l/m² 0 min 0 min 0 W/m² 16,1 km/h (3 Bft) 98,15 %
31.01.2026 04:12 3,9 °C 3,3 °C 0,0 °C 94 % 998,3 hPa 0,0 l/m² 0 min 0 min 0 W/m² 19,3 km/h (3 Bft) 97,87 %
31.01.2026 04:14 3,9 °C 3,3 °C 0,0 °C 94 % 998,4 hPa 0,0 l/m² 0 min 0 min 0 W/m² 12,9 km/h (3 Bft) 97,83 %
31.01.2026 04:16 3,9 °C 3,3 °C 0,0 °C 94 % 998,4 hPa 0,0 l/m² 0 min 0 min 0 W/m² 25,7 km/h (4 Bft) 95,74 %
31.01.2026 04:18 3,9 °C 3,3 °C 0,0 °C 94 % 998,4 hPa 0,0 l/m² 0 min 0 min 0 W/m² 19,3 km/h (3 Bft) 97,87 %
31.01.2026 04:20 3,9 °C 3,3 °C 0,0 °C 94 % 998,4 hPa 0,0 l/m² 0 min 0 min 0 W/m² 16,1 km/h (3 Bft) 97,87 %
31.01.2026 04:22 3,9 °C 3,3 °C 0,0 °C 94 % 998,4 hPa 0,0 l/m² 0 min 0 min 0 W/m² 16,1 km/h (3 Bft) 97,87 %
31.01.2026 04:24 3,9 °C 3,3 °C 0,0 °C 94 % 998,4 hPa 0,0 l/m² 0 min 0 min 0 W/m² 22,5 km/h (4 Bft) 95,74 %
31.01.2026 04:26 3,9 °C 3,3 °C 0,0 °C 94 % 998,4 hPa 0,0 l/m² 0 min 0 min 0 W/m² 19,3 km/h (3 Bft) 97,83 %
31.01.2026 04:28 3,9 °C 3,3 °C 0,0 °C 94 % 998,5 hPa 0,0 l/m² 0 min 0 min 0 W/m² 19,3 km/h (3 Bft) 97,87 %
31.01.2026 04:30 3,9 °C 3,3 °C 0,0 °C 94 % 998,5 hPa 0,0 l/m² 0 min 0 min 0 W/m² 19,3 km/h (3 Bft) 97,87 %
31.01.2026 04:32 3,9 °C 3,3 °C 0,0 °C 94 % 998,4 hPa 0,0 l/m² 0 min 0 min 0 W/m² 19,3 km/h (3 Bft) 100,00 %
31.01.2026 04:34 3,9 °C 3,3 °C 0,0 °C 94 % 998,5 hPa 0,0 l/m² 0 min 0 min 0 W/m² 16,1 km/h (3 Bft) 97,87 %
31.01.2026 04:36 3,9 °C 3,3 °C 0,0 °C 94 % 998,5 hPa 0,0 l/m² 0 min 0 min 0 W/m² 22,5 km/h (4 Bft) 97,87 %
31.01.2026 04:38 4,0 °C 3,3 °C 0,0 °C 94 % 998,4 hPa 0,0 l/m² 0 min 0 min 0 W/m² 16,1 km/h (3 Bft) 97,83 %
31.01.2026 04:40 4,0 °C 3,3 °C 0,0 °C 94 % 998,4 hPa 0,0 l/m² 0 min 0 min 0 W/m² 16,1 km/h (3 Bft) 97,87 %
31.01.2026 04:42 3,9 °C 3,3 °C 0,0 °C 94 % 998,5 hPa 0,0 l/m² 0 min 0 min 0 W/m² 22,5 km/h (4 Bft) 95,74 %
31.01.2026 04:44 4,0 °C 3,3 °C 0,0 °C 94 % 998,4 hPa 0,0 l/m² 0 min 0 min 0 W/m² 22,5 km/h (4 Bft) 97,87 %
31.01.2026 04:46 4,0 °C 3,3 °C 0,0 °C 94 % 998,5 hPa 0,0 l/m² 0 min 0 min 0 W/m² 16,1 km/h (3 Bft) 95,74 %
31.01.2026 04:48 4,0 °C 3,3 °C 0,0 °C 94 % 998,5 hPa 0,0 l/m² 0 min 0 min 0 W/m² 19,3 km/h (3 Bft) 89,36 %
31.01.2026 04:50 4,0 °C 3,3 °C 0,0 °C 94 % 998,6 hPa 0,0 l/m² 0 min 0 min 0 W/m² 6,4 km/h (2 Bft) 96,27 %
31.01.2026 04:52 4,0 °C 3,3 °C 0,0 °C 94 % 998,6 hPa 0,0 l/m² 0 min 0 min 0 W/m² 22,5 km/h (4 Bft) 97,78 %
31.01.2026 04:54 4,0 °C 3,3 °C 0,0 °C 94 % 998,6 hPa 0,0 l/m² 0 min 0 min 0 W/m² 19,3 km/h (3 Bft) 97,87 %
31.01.2026 04:56 4,0 °C 3,3 °C 0,0 °C 94 % 998,5 hPa 0,0 l/m² 0 min 0 min 0 W/m² 22,5 km/h (4 Bft) 95,74 %
31.01.2026 04:58 4,0 °C 3,3 °C 0,0 °C 94 % 998,6 hPa 0,0 l/m² 0 min 0 min 0 W/m² 22,5 km/h (4 Bft) 97,87 %
31.01.2026 05:00 4,1 °C 3,3 °C 0,0 °C 94 % 998,6 hPa 0,0 l/m² 0 min 0 min 0 W/m² 19,3 km/h (3 Bft) 95,74 %
31.01.2026 05:02 4,1 °C 3,3 °C 0,0 °C 94 % 998,7 hPa 0,0 l/m² 0 min 0 min 0 W/m² 19,3 km/h (3 Bft) 95,65 %
31.01.2026 05:04 4,1 °C 3,3 °C 0,0 °C 94 % 998,7 hPa 0,0 l/m² 0 min 0 min 0 W/m² 19,3 km/h (3 Bft) 100,00 %
31.01.2026 05:06 4,1 °C 3,3 °C 0,0 °C 94 % 998,7 hPa 0,0 l/m² 0 min 0 min 0 W/m² 22,5 km/h (4 Bft) 95,89 %
31.01.2026 05:08 4,1 °C 3,3 °C 0,0 °C 94 % 998,6 hPa 0,0 l/m² 0 min 0 min 0 W/m² 16,1 km/h (3 Bft) 97,14 %
31.01.2026 05:10 4,1 °C 3,3 °C 0,0 °C 94 % 998,7 hPa 0,0 l/m² 0 min 0 min 0 W/m² 22,5 km/h (4 Bft) 98,00 %
31.01.2026 05:12 4,1 °C 3,3 °C 0,0 °C 94 % 998,7 hPa 0,0 l/m² 0 min 0 min 0 W/m² 16,1 km/h (3 Bft) 97,83 %
31.01.2026 05:14 4,1 °C 3,3 °C 0,0 °C 94 % 998,7 hPa 0,0 l/m² 0 min 0 min 0 W/m² 16,1 km/h (3 Bft) 100,00 %
31.01.2026 05:16 4,1 °C 3,3 °C 0,0 °C 94 % 998,7 hPa 0,0 l/m² 0 min 0 min 0 W/m² 16,1 km/h (3 Bft) 100,00 %
31.01.2026 05:18 4,1 °C 3,3 °C 0,0 °C 94 % 998,6 hPa 0,0 l/m² 0 min 0 min 0 W/m² 19,3 km/h (3 Bft) 100,00 %
31.01.2026 05:20 4,1 °C 3,3 °C 0,0 °C 94 % 998,6 hPa 0,0 l/m² 0 min 0 min 0 W/m² 22,5 km/h (4 Bft) 97,87 %
31.01.2026 05:22 4,1 °C 3,3 °C 0,0 °C 94 % 998,7 hPa 0,0 l/m² 0 min 0 min 0 W/m² 19,3 km/h (3 Bft) 100,00 %
31.01.2026 05:24 4,1 °C 3,3 °C 0,0 °C 94 % 998,6 hPa 0,0 l/m² 0 min 0 min 0 W/m² 19,3 km/h (3 Bft) 97,83 %
31.01.2026 05:26 4,1 °C 3,3 °C 0,0 °C 94 % 998,6 hPa 0,0 l/m² 0 min 0 min 0 W/m² 19,3 km/h (3 Bft) 100,00 %
31.01.2026 05:28 4,2 °C 3,3 °C 0,0 °C 94 % 998,6 hPa 0,0 l/m² 0 min 0 min 0 W/m² 16,1 km/h (3 Bft) 100,00 %
31.01.2026 05:30 4,2 °C 3,3 °C 0,0 °C 94 % 998,6 hPa 0,0 l/m² 0 min 0 min 0 W/m² 16,1 km/h (3 Bft) 100,00 %
31.01.2026 05:32 4,1 °C 3,3 °C 0,0 °C 94 % 998,7 hPa 0,0 l/m² 0 min 0 min 0 W/m² 12,9 km/h (3 Bft) 93,62 %
31.01.2026 05:34 4,2 °C 3,3 °C 0,0 °C 94 % 998,6 hPa 0,0 l/m² 0 min 0 min 0 W/m² 16,1 km/h (3 Bft) 93,48 %
31.01.2026 05:36 4,2 °C 3,3 °C 0,0 °C 94 % 998,7 hPa 0,0 l/m² 0 min 0 min 0 W/m² 16,1 km/h (3 Bft) 97,87 %
31.01.2026 05:38 4,2 °C 3,3 °C 0,0 °C 94 % 998,6 hPa 0,0 l/m² 0 min 0 min 0 W/m² 12,9 km/h (3 Bft) 95,74 %
31.01.2026 05:40 4,2 °C 3,3 °C 0,0 °C 95 % 998,7 hPa 0,0 l/m² 0 min 0 min 0 W/m² 16,1 km/h (3 Bft) 97,87 %
31.01.2026 05:42 4,2 °C 3,3 °C 0,0 °C 95 % 998,6 hPa 0,0 l/m² 0 min 0 min 0 W/m² 16,1 km/h (3 Bft) 97,87 %
31.01.2026 05:44 4,2 °C 3,3 °C 0,0 °C 95 % 998,6 hPa 0,0 l/m² 0 min 0 min 0 W/m² 16,1 km/h (3 Bft) 95,74 %
31.01.2026 05:46 4,2 °C 3,3 °C 0,0 °C 95 % 998,7 hPa 0,0 l/m² 0 min 0 min 0 W/m² 19,3 km/h (3 Bft) 95,65 %
31.01.2026 05:48 4,2 °C 3,9 °C 0,0 °C 95 % 998,7 hPa 0,0 l/m² 0 min 0 min 0 W/m² 16,1 km/h (3 Bft) 97,87 %
31.01.2026 05:50 4,2 °C 3,9 °C 0,0 °C 95 % 998,8 hPa 0,0 l/m² 0 min 2 min 0 W/m² 19,3 km/h (3 Bft) 97,87 %
31.01.2026 05:52 4,2 °C 3,9 °C 0,0 °C 95 % 998,8 hPa 0,2 l/m² 0 min 2 min 0 W/m² 22,5 km/h (4 Bft) 95,74 %
31.01.2026 05:54 4,2 °C 3,3 °C 0,0 °C 95 % 998,8 hPa 0,0 l/m² 0 min 2 min 0 W/m² 16,1 km/h (3 Bft) 95,74 %
31.01.2026 05:56 4,2 °C 3,3 °C 0,0 °C 95 % 998,7 hPa 0,0 l/m² 0 min 2 min 0 W/m² 22,5 km/h (4 Bft) 97,87 %
31.01.2026 05:58 4,2 °C 3,3 °C 0,0 °C 95 % 998,8 hPa 0,0 l/m² 0 min 2 min 0 W/m² 19,3 km/h (3 Bft) 97,87 %
31.01.2026 06:00 4,2 °C 3,3 °C 0,0 °C 95 % 998,8 hPa 0,0 l/m² 0 min 0 min 0 W/m² 19,3 km/h (3 Bft) 95,65 %
31.01.2026 06:02 4,2 °C 3,3 °C 0,0 °C 95 % 998,8 hPa 0,0 l/m² 0 min 0 min 0 W/m² 19,3 km/h (3 Bft) 95,74 %
31.01.2026 06:04 4,2 °C 3,3 °C 0,0 °C 95 % 998,8 hPa 0,0 l/m² 0 min 0 min 0 W/m² 19,3 km/h (3 Bft) 97,87 %
31.01.2026 06:07 4,2 °C 3,3 °C 0,0 °C 95 % 998,9 hPa 0,2 l/m² 0 min 0 min 0 W/m² 19,3 km/h (3 Bft) 100,00 %
31.01.2026 06:08 4,2 °C 3,3 °C 0,0 °C 95 % 998,9 hPa 0,0 l/m² 0 min 0 min 0 W/m² 16,1 km/h (3 Bft) 100,00 %
31.01.2026 06:12 4,2 °C 3,3 °C 0,0 °C 95 % 999,0 hPa 0,0 l/m² 0 min 0 min 0 W/m² 16,1 km/h (3 Bft) 100,00 %
31.01.2026 06:14 4,2 °C 3,3 °C 0,0 °C 95 % 999,0 hPa 0,0 l/m² 0 min 0 min 0 W/m² 16,1 km/h (3 Bft) 97,87 %
31.01.2026 06:16 4,2 °C 3,3 °C 0,0 °C 95 % 999,0 hPa 0,0 l/m² 0 min 0 min 0 W/m² 22,5 km/h (4 Bft) 93,62 %
31.01.2026 06:18 4,2 °C 3,3 °C 0,0 °C 95 % 999,1 hPa 0,0 l/m² 0 min 0 min 0 W/m² 16,1 km/h (3 Bft) 97,87 %
31.01.2026 06:20 4,2 °C 3,3 °C 0,0 °C 95 % 999,1 hPa 0,0 l/m² 0 min 0 min 0 W/m² 16,1 km/h (3 Bft) 97,87 %
31.01.2026 06:22 4,2 °C 3,3 °C 0,0 °C 95 % 999,1 hPa 0,0 l/m² 0 min 0 min 0 W/m² 16,1 km/h (3 Bft) 97,83 %
31.01.2026 06:24 4,2 °C 3,3 °C 0,0 °C 95 % 999,1 hPa 0,0 l/m² 0 min 0 min 0 W/m² 19,3 km/h (3 Bft) 97,87 %
31.01.2026 06:26 4,2 °C 3,3 °C 0,0 °C 95 % 999,2 hPa 0,0 l/m² 0 min 0 min 0 W/m² 9,7 km/h (2 Bft) 95,74 %
31.01.2026 06:28 4,2 °C 3,3 °C 0,0 °C 95 % 999,1 hPa 0,0 l/m² 0 min 0 min 0 W/m² 12,9 km/h (3 Bft) 95,74 %
31.01.2026 06:30 4,2 °C 3,3 °C 0,0 °C 95 % 999,2 hPa 0,0 l/m² 0 min 0 min 0 W/m² 16,1 km/h (3 Bft) 97,87 %
31.01.2026 06:32 4,2 °C 3,3 °C 0,0 °C 95 % 999,2 hPa 0,0 l/m² 0 min 2 min 0 W/m² 16,1 km/h (3 Bft) 97,87 %
31.01.2026 06:34 4,2 °C 3,3 °C 0,0 °C 95 % 999,2 hPa 0,0 l/m² 0 min 0 min 0 W/m² 19,3 km/h (3 Bft) 97,83 %
31.01.2026 06:36 4,2 °C 3,3 °C 0,0 °C 95 % 999,2 hPa 0,0 l/m² 0 min 0 min 0 W/m² 16,1 km/h (3 Bft) 97,87 %
31.01.2026 06:38 4,2 °C 3,3 °C 0,0 °C 95 % 999,2 hPa 0,0 l/m² 0 min 0 min 0 W/m² 19,3 km/h (3 Bft) 97,87 %
31.01.2026 06:40 4,2 °C 3,3 °C 0,0 °C 95 % 999,3 hPa 0,0 l/m² 0 min 0 min 0 W/m² 16,1 km/h (3 Bft) 97,87 %
31.01.2026 06:42 4,2 °C 3,3 °C 0,0 °C 95 % 999,3 hPa 0,0 l/m² 0 min 0 min 0 W/m² 12,9 km/h (3 Bft) 97,87 %
31.01.2026 06:44 4,2 °C 3,3 °C 0,0 °C 95 % 999,4 hPa 0,0 l/m² 0 min 0 min 0 W/m² 12,9 km/h (3 Bft) 95,74 %
31.01.2026 06:46 4,2 °C 3,3 °C 0,0 °C 95 % 999,4 hPa 0,0 l/m² 0 min 0 min 0 W/m² 16,1 km/h (3 Bft) 97,83 %
31.01.2026 06:48 4,2 °C 3,3 °C 0,0 °C 95 % 999,4 hPa 0,0 l/m² 0 min 0 min 0 W/m² 12,9 km/h (3 Bft) 97,87 %
31.01.2026 06:50 4,2 °C 3,3 °C 0,0 °C 95 % 999,5 hPa 0,0 l/m² 0 min 0 min 0 W/m² 16,1 km/h (3 Bft) 97,87 %
31.01.2026 06:52 4,2 °C 3,3 °C 0,0 °C 95 % 999,4 hPa 0,0 l/m² 0 min 0 min 0 W/m² 12,9 km/h (3 Bft) 97,87 %
31.01.2026 06:54 4,2 °C 3,3 °C 0,0 °C 95 % 999,4 hPa 0,0 l/m² 0 min 0 min 0 W/m² 6,4 km/h (2 Bft) 97,87 %
31.01.2026 06:56 4,2 °C 3,3 °C 0,0 °C 95 % 999,5 hPa 0,0 l/m² 0 min 0 min 0 W/m² 16,1 km/h (3 Bft) 100,00 %
31.01.2026 06:58 4,2 °C 3,3 °C 0,0 °C 95 % 999,5 hPa 0,0 l/m² 0 min 0 min 0 W/m² 19,3 km/h (3 Bft) 97,87 %
31.01.2026 07:00 4,2 °C 3,3 °C 0,0 °C 95 % 999,5 hPa 0,0 l/m² 0 min 0 min 0 W/m² 16,1 km/h (3 Bft) 97,87 %
31.01.2026 07:02 4,2 °C 3,9 °C 0,0 °C 96 % 999,5 hPa 0,0 l/m² 0 min 0 min 0 W/m² 22,5 km/h (4 Bft) 97,87 %
31.01.2026 07:04 4,2 °C 3,9 °C 0,0 °C 96 % 999,6 hPa 0,0 l/m² 0 min 0 min 0 W/m² 16,1 km/h (3 Bft) 100,00 %
31.01.2026 07:06 4,2 °C 3,9 °C 0,0 °C 96 % 999,6 hPa 0,0 l/m² 0 min 0 min 0 W/m² 16,1 km/h (3 Bft) 97,83 %
31.01.2026 07:08 4,2 °C 3,9 °C 0,0 °C 96 % 999,6 hPa 0,0 l/m² 0 min 0 min 0 W/m² 12,9 km/h (3 Bft) 100,00 %
31.01.2026 07:10 4,2 °C 3,9 °C 0,0 °C 95 % 999,7 hPa 0,0 l/m² 0 min 0 min 0 W/m² 9,7 km/h (2 Bft) 100,00 %
31.01.2026 07:12 4,2 °C 3,9 °C 0,0 °C 95 % 999,8 hPa 0,0 l/m² 0 min 0 min 0 W/m² 19,3 km/h (3 Bft) 97,83 %
31.01.2026 07:14 4,2 °C 3,9 °C 0,0 °C 95 % 999,8 hPa 0,0 l/m² 0 min 0 min 0 W/m² 12,9 km/h (3 Bft) 100,00 %
31.01.2026 07:16 4,2 °C 3,9 °C 0,0 °C 95 % 999,8 hPa 0,0 l/m² 0 min 0 min 0 W/m² 16,1 km/h (3 Bft) 100,00 %
31.01.2026 07:18 4,2 °C 3,9 °C 0,0 °C 95 % 999,9 hPa 0,0 l/m² 0 min 0 min 0 W/m² 19,3 km/h (3 Bft) 100,00 %
31.01.2026 07:20 4,2 °C 3,9 °C 0,0 °C 95 % 999,9 hPa 0,0 l/m² 0 min 0 min 0 W/m² 16,1 km/h (3 Bft) 97,87 %
31.01.2026 07:22 4,2 °C 3,9 °C 0,0 °C 96 % 999,9 hPa 0,0 l/m² 0 min 0 min 0 W/m² 12,9 km/h (3 Bft) 97,87 %
31.01.2026 07:24 4,2 °C 3,9 °C 0,0 °C 96 % 999,9 hPa 0,0 l/m² 0 min 0 min 0 W/m² 12,9 km/h (3 Bft) 93,48 %
31.01.2026 07:26 4,2 °C 3,9 °C 0,0 °C 96 % 999,9 hPa 0,0 l/m² 0 min 0 min 0 W/m² 19,3 km/h (3 Bft) 97,87 %
31.01.2026 07:28 4,2 °C 3,9 °C 0,0 °C 96 % 999,9 hPa 0,0 l/m² 0 min 0 min 0 W/m² 16,1 km/h (3 Bft) 95,74 %
31.01.2026 07:30 4,2 °C 3,9 °C 0,0 °C 96 % 1000,0 hPa 0,0 l/m² 0 min 0 min 0 W/m² 12,9 km/h (3 Bft) 95,74 %
31.01.2026 07:32 4,3 °C 3,9 °C 0,0 °C 96 % 1000,0 hPa 0,0 l/m² 0 min 0 min 0 W/m² 12,9 km/h (3 Bft) 95,74 %
31.01.2026 07:34 4,3 °C 3,3 °C 0,0 °C 96 % 1000,0 hPa 0,0 l/m² 0 min 2 min 0 W/m² 12,9 km/h (3 Bft) 95,65 %
31.01.2026 07:36 4,3 °C 3,3 °C 0,0 °C 96 % 1000,0 hPa 0,0 l/m² 0 min 0 min 0 W/m² 16,1 km/h (3 Bft) 95,74 %
31.01.2026 07:38 4,3 °C 3,3 °C 0,0 °C 96 % 1000,0 hPa 0,0 l/m² 0 min 0 min 0 W/m² 16,1 km/h (3 Bft) 95,74 %
31.01.2026 07:40 4,3 °C 3,9 °C 0,0 °C 96 % 1000,0 hPa 0,0 l/m² 0 min 2 min 0 W/m² 16,1 km/h (3 Bft) 93,62 %
31.01.2026 07:42 4,3 °C 3,9 °C 0,0 °C 96 % 1000,0 hPa 0,0 l/m² 0 min 0 min 0 W/m² 16,1 km/h (3 Bft) 93,62 %
31.01.2026 07:44 4,3 °C 3,9 °C 0,0 °C 96 % 1000,1 hPa 0,2 l/m² 0 min 0 min 0 W/m² 22,5 km/h (4 Bft) 95,74 %
31.01.2026 07:46 4,3 °C 3,3 °C 0,0 °C 96 % 1000,1 hPa 0,0 l/m² 0 min 0 min 0 W/m² 12,9 km/h (3 Bft) 95,74 %
31.01.2026 07:48 4,3 °C 3,3 °C 0,0 °C 96 % 1000,2 hPa 0,0 l/m² 0 min 0 min 0 W/m² 19,3 km/h (3 Bft) 93,48 %
31.01.2026 07:50 4,3 °C 3,3 °C 0,0 °C 96 % 1000,1 hPa 0,0 l/m² 0 min 0 min 0 W/m² 22,5 km/h (4 Bft) 95,74 %
31.01.2026 07:52 4,2 °C 3,3 °C 0,0 °C 96 % 1000,2 hPa 0,0 l/m² 0 min 0 min 0 W/m² 16,1 km/h (3 Bft) 95,74 %
31.01.2026 07:54 4,3 °C 3,3 °C 0,0 °C 96 % 1000,3 hPa 0,0 l/m² 0 min 0 min 0 W/m² 16,1 km/h (3 Bft) 97,87 %
31.01.2026 07:56 4,3 °C 3,3 °C 0,0 °C 96 % 1000,3 hPa 0,0 l/m² 0 min 0 min 0 W/m² 16,1 km/h (3 Bft) 95,74 %
31.01.2026 07:58 4,3 °C 3,3 °C 0,0 °C 96 % 1000,3 hPa 0,0 l/m² 0 min 0 min 0 W/m² 16,1 km/h (3 Bft) 95,65 %
31.01.2026 08:00 4,3 °C 3,3 °C 0,0 °C 96 % 1000,3 hPa 0,0 l/m² 0 min 0 min 0 W/m² 19,3 km/h (3 Bft) 97,87 %
31.01.2026 08:02 4,3 °C 3,3 °C 0,0 °C 96 % 1000,4 hPa 0,0 l/m² 0 min 0 min 0 W/m² 12,9 km/h (3 Bft) 97,87 %
31.01.2026 08:04 4,3 °C 3,3 °C 0,0 °C 96 % 1000,4 hPa 0,0 l/m² 0 min 0 min 0 W/m² 9,7 km/h (2 Bft) 97,92 %
31.01.2026 08:06 4,3 °C 3,3 °C 0,0 °C 96 % 1000,5 hPa 0,0 l/m² 0 min 0 min 0 W/m² 12,9 km/h (3 Bft) 98,28 %
31.01.2026 08:08 4,3 °C 3,3 °C 0,0 °C 96 % 1000,4 hPa 0,0 l/m² 0 min 0 min 0 W/m² 9,7 km/h (2 Bft) 94,44 %
31.01.2026 08:10 4,3 °C 3,3 °C 0,0 °C 96 % 1000,4 hPa 0,0 l/m² 0 min 0 min 0 W/m² 16,1 km/h (3 Bft) 97,83 %
31.01.2026 08:12 4,3 °C 3,9 °C 0,0 °C 96 % 1000,5 hPa 0,0 l/m² 0 min 0 min 0 W/m² 19,3 km/h (3 Bft) 97,87 %
31.01.2026 08:14 4,3 °C 3,9 °C 0,0 °C 96 % 1000,4 hPa 0,0 l/m² 0 min 0 min 0 W/m² 16,1 km/h (3 Bft) 97,87 %
31.01.2026 08:16 4,3 °C 3,9 °C 0,0 °C 96 % 1000,5 hPa 0,0 l/m² 0 min 0 min 0 W/m² 16,1 km/h (3 Bft) 97,87 %
31.01.2026 08:18 4,3 °C 3,3 °C 0,0 °C 96 % 1000,5 hPa 0,0 l/m² 0 min 0 min 0 W/m² 16,1 km/h (3 Bft) 100,00 %
31.01.2026 08:20 4,3 °C 3,3 °C 0,0 °C 96 % 1000,5 hPa 0,0 l/m² 0 min 0 min 0 W/m² 25,7 km/h (4 Bft) 95,74 %
31.01.2026 08:22 4,3 °C 3,9 °C 0,0 °C 96 % 1000,5 hPa 0,0 l/m² 0 min 0 min 0 W/m² 16,1 km/h (3 Bft) 97,83 %
31.01.2026 08:24 4,3 °C 3,9 °C 0,0 °C 96 % 1000,6 hPa 0,0 l/m² 0 min 0 min 0 W/m² 9,7 km/h (2 Bft) 97,87 %
31.01.2026 08:26 4,3 °C 3,9 °C 0,0 °C 96 % 1000,6 hPa 0,0 l/m² 0 min 0 min 0 W/m² 16,1 km/h (3 Bft) 100,00 %
31.01.2026 08:28 4,3 °C 3,9 °C 0,0 °C 96 % 1000,6 hPa 0,0 l/m² 0 min 0 min 3 W/m² 19,3 km/h (3 Bft) 100,00 %
31.01.2026 08:30 4,3 °C 3,9 °C 0,0 °C 96 % 1000,5 hPa 0,0 l/m² 0 min 0 min 5 W/m² 9,7 km/h (2 Bft) 100,00 %
31.01.2026 08:32 4,3 °C 3,9 °C 0,0 °C 96 % 1000,6 hPa 0,0 l/m² 0 min 0 min 5 W/m² 12,9 km/h (3 Bft) 95,74 %
31.01.2026 08:34 4,3 °C 3,9 °C 0,0 °C 96 % 1000,5 hPa 0,0 l/m² 0 min 0 min 5 W/m² 19,3 km/h (3 Bft) 100,00 %
31.01.2026 08:36 4,3 °C 3,9 °C 0,0 °C 96 % 1000,5 hPa 0,0 l/m² 0 min 0 min 6 W/m² 22,5 km/h (4 Bft) 100,00 %
31.01.2026 08:38 4,3 °C 3,9 °C 0,0 °C 96 % 1000,6 hPa 0,0 l/m² 0 min 0 min 7 W/m² 16,1 km/h (3 Bft) 95,74 %
31.01.2026 08:40 4,3 °C 3,9 °C 0,0 °C 96 % 1000,6 hPa 0,0 l/m² 0 min 0 min 7 W/m² 25,7 km/h (4 Bft) 97,87 %
31.01.2026 08:42 4,3 °C 3,9 °C 0,0 °C 96 % 1000,7 hPa 0,0 l/m² 0 min 0 min 8 W/m² 16,1 km/h (3 Bft) 97,87 %
31.01.2026 08:44 4,3 °C 3,9 °C 0,0 °C 96 % 1000,7 hPa 0,0 l/m² 0 min 0 min 11 W/m² 12,9 km/h (3 Bft) 95,74 %
31.01.2026 08:46 4,3 °C 3,9 °C 0,0 °C 96 % 1000,7 hPa 0,0 l/m² 0 min 0 min 12 W/m² 19,3 km/h (3 Bft) 95,65 %
31.01.2026 08:48 4,3 °C 3,9 °C 0,0 °C 96 % 1000,7 hPa 0,0 l/m² 0 min 0 min 12 W/m² 19,3 km/h (3 Bft) 48,72 %
31.01.2026 08:50 4,3 °C 3,9 °C 0,0 °C 96 % 1000,7 hPa 0,0 l/m² 0 min 0 min 14 W/m² 19,3 km/h (3 Bft) 97,87 %
31.01.2026 08:52 4,3 °C 3,9 °C 0,0 °C 96 % 1000,7 hPa 0,0 l/m² 0 min 0 min 14 W/m² 19,3 km/h (3 Bft) 97,87 %
31.01.2026 08:54 4,3 °C 3,9 °C 0,0 °C 97 % 1000,8 hPa 0,0 l/m² 0 min 0 min 14 W/m² 16,1 km/h (3 Bft) 95,74 %
31.01.2026 08:56 4,3 °C 3,9 °C 0,0 °C 97 % 1000,8 hPa 0,0 l/m² 0 min 0 min 14 W/m² 16,1 km/h (3 Bft) 97,83 %
31.01.2026 08:58 4,3 °C 3,9 °C 0,0 °C 97 % 1000,9 hPa 0,0 l/m² 0 min 0 min 14 W/m² 16,1 km/h (3 Bft) 97,87 %
31.01.2026 09:00 4,3 °C 3,9 °C 0,6 °C 97 % 1000,9 hPa 0,0 l/m² 0 min 0 min 14 W/m² 19,3 km/h (3 Bft) 97,87 %
31.01.2026 09:02 4,3 °C 3,9 °C 0,0 °C 97 % 1000,9 hPa 0,0 l/m² 0 min 0 min 14 W/m² 25,7 km/h (4 Bft) 95,74 %
31.01.2026 09:04 4,3 °C 3,9 °C 0,6 °C 97 % 1001,0 hPa 0,0 l/m² 0 min 0 min 15 W/m² 22,5 km/h (4 Bft) 95,83 %
31.01.2026 09:06 4,3 °C 3,9 °C 0,6 °C 97 % 1001,1 hPa 0,0 l/m² 0 min 0 min 17 W/m² 19,3 km/h (3 Bft) 98,28 %
31.01.2026 09:08 4,3 °C 3,9 °C 0,6 °C 97 % 1001,0 hPa 0,0 l/m² 0 min 0 min 20 W/m² 12,9 km/h (3 Bft) 97,14 %
31.01.2026 09:10 4,3 °C 3,9 °C 0,6 °C 97 % 1001,1 hPa 0,0 l/m² 0 min 0 min 23 W/m² 16,1 km/h (3 Bft) 97,87 %
31.01.2026 09:12 4,3 °C 3,9 °C 0,6 °C 97 % 1001,2 hPa 0,0 l/m² 0 min 0 min 26 W/m² 22,5 km/h (4 Bft) 97,87 %
31.01.2026 09:14 4,3 °C 3,9 °C 0,6 °C 97 % 1001,2 hPa 0,0 l/m² 0 min 0 min 28 W/m² 19,3 km/h (3 Bft) 95,74 %
31.01.2026 09:16 4,3 °C 3,9 °C 0,6 °C 97 % 1001,2 hPa 0,0 l/m² 0 min 0 min 28 W/m² 19,3 km/h (3 Bft) 95,74 %
31.01.2026 09:18 4,3 °C 3,9 °C 0,6 °C 97 % 1001,3 hPa 0,0 l/m² 0 min 0 min 30 W/m² 16,1 km/h (3 Bft) 95,74 %
31.01.2026 09:20 4,4 °C 3,9 °C 0,6 °C 97 % 1001,3 hPa 0,0 l/m² 0 min 0 min 32 W/m² 16,1 km/h (3 Bft) 95,65 %
31.01.2026 09:22 4,4 °C 3,9 °C 0,6 °C 97 % 1001,3 hPa 0,0 l/m² 0 min 0 min 37 W/m² 16,1 km/h (3 Bft) 97,87 %
31.01.2026 09:24 4,4 °C 3,9 °C 0,6 °C 97 % 1001,3 hPa 0,0 l/m² 0 min 0 min 39 W/m² 16,1 km/h (3 Bft) 97,87 %
31.01.2026 09:26 4,4 °C 3,9 °C 0,6 °C 97 % 1001,4 hPa 0,0 l/m² 0 min 0 min 40 W/m² 16,1 km/h (3 Bft) 97,87 %
31.01.2026 09:28 4,4 °C 3,9 °C 0,6 °C 97 % 1001,4 hPa 0,0 l/m² 0 min 0 min 41 W/m² 19,3 km/h (3 Bft) 97,87 %
31.01.2026 09:30 4,4 °C 3,9 °C 0,6 °C 97 % 1001,4 hPa 0,0 l/m² 0 min 0 min 44 W/m² 19,3 km/h (3 Bft) 95,74 %
31.01.2026 09:32 4,4 °C 4,4 °C 0,6 °C 97 % 1001,4 hPa 0,0 l/m² 0 min 0 min 44 W/m² 16,1 km/h (3 Bft) 97,83 %
31.01.2026 09:34 4,4 °C 4,4 °C 0,6 °C 97 % 1001,4 hPa 0,0 l/m² 0 min 0 min 46 W/m² 12,9 km/h (3 Bft) 95,74 %
31.01.2026 09:36 4,5 °C 4,4 °C 0,6 °C 97 % 1001,4 hPa 0,0 l/m² 0 min 0 min 50 W/m² 16,1 km/h (3 Bft) 97,87 %
31.01.2026 09:38 4,5 °C 4,4 °C 0,6 °C 97 % 1001,4 hPa 0,0 l/m² 0 min 0 min 52 W/m² 12,9 km/h (3 Bft) 95,74 %
31.01.2026 09:40 4,5 °C 4,4 °C 0,6 °C 97 % 1001,4 hPa 0,0 l/m² 0 min 0 min 54 W/m² 12,9 km/h (3 Bft) 97,87 %
31.01.2026 09:42 4,5 °C 4,4 °C 0,6 °C 97 % 1001,5 hPa 0,0 l/m² 0 min 0 min 54 W/m² 19,3 km/h (3 Bft) 97,87 %
31.01.2026 09:44 4,6 °C 4,4 °C 0,6 °C 97 % 1001,5 hPa 0,0 l/m² 0 min 0 min 51 W/m² 16,1 km/h (3 Bft) 93,48 %
31.01.2026 09:46 4,6 °C 4,4 °C 0,6 °C 97 % 1001,5 hPa 0,0 l/m² 0 min 0 min 45 W/m² 19,3 km/h (3 Bft) 97,87 %
31.01.2026 09:48 4,6 °C 4,4 °C 0,6 °C 97 % 1001,6 hPa 0,0 l/m² 0 min 0 min 42 W/m² 12,9 km/h (3 Bft) 100,00 %
31.01.2026 09:50 4,6 °C 4,4 °C 0,6 °C 97 % 1001,6 hPa 0,0 l/m² 0 min 0 min 38 W/m² 16,1 km/h (3 Bft) 100,00 %
31.01.2026 09:52 4,6 °C 4,4 °C 0,6 °C 97 % 1001,6 hPa 0,0 l/m² 0 min 0 min 34 W/m² 16,1 km/h (3 Bft) 95,74 %
31.01.2026 09:54 4,6 °C 4,4 °C 0,6 °C 97 % 1001,7 hPa 0,0 l/m² 0 min 0 min 33 W/m² 12,9 km/h (3 Bft) 100,00 %
31.01.2026 09:56 4,6 °C 4,4 °C 0,6 °C 97 % 1001,8 hPa 0,0 l/m² 0 min 0 min 32 W/m² 25,7 km/h (4 Bft) 100,00 %
31.01.2026 09:58 4,6 °C 4,4 °C 0,6 °C 97 % 1001,8 hPa 0,0 l/m² 0 min 0 min 31 W/m² 19,3 km/h (3 Bft) 100,00 %
31.01.2026 10:00 4,6 °C 4,4 °C 0,6 °C 97 % 1001,8 hPa 0,0 l/m² 0 min 0 min 30 W/m² 19,3 km/h (3 Bft) 100,00 %
31.01.2026 10:02 4,6 °C 4,4 °C 0,6 °C 97 % 1001,8 hPa 0,0 l/m² 0 min 0 min 33 W/m² 25,7 km/h (4 Bft) 100,00 %
31.01.2026 10:04 4,6 °C 4,4 °C 0,6 °C 97 % 1001,8 hPa 0,0 l/m² 0 min 0 min 34 W/m² 22,5 km/h (4 Bft) 100,00 %
31.01.2026 10:06 4,7 °C 4,4 °C 0,6 °C 97 % 1001,9 hPa 0,0 l/m² 0 min 0 min 38 W/m² 19,3 km/h (3 Bft) 100,00 %
31.01.2026 10:08 4,7 °C 4,4 °C 0,6 °C 97 % 1001,9 hPa 0,0 l/m² 0 min 0 min 40 W/m² 19,3 km/h (3 Bft) 100,00 %
31.01.2026 10:10 4,7 °C 4,4 °C 0,6 °C 97 % 1001,9 hPa 0,0 l/m² 0 min 0 min 42 W/m² 12,9 km/h (3 Bft) 100,00 %
31.01.2026 10:12 4,7 °C 4,4 °C 0,6 °C 97 % 1002,0 hPa 0,0 l/m² 0 min 0 min 48 W/m² 25,7 km/h (4 Bft) 100,00 %
31.01.2026 10:14 4,7 °C 4,4 °C 0,6 °C 97 % 1002,0 hPa 0,0 l/m² 0 min 0 min 57 W/m² 19,3 km/h (3 Bft) 100,00 %
31.01.2026 10:16 4,7 °C 4,4 °C 0,6 °C 97 % 1001,9 hPa 0,0 l/m² 0 min 0 min 65 W/m² 19,3 km/h (3 Bft) 100,00 %
31.01.2026 10:18 4,7 °C 4,4 °C 1,1 °C 97 % 1001,9 hPa 0,0 l/m² 0 min 0 min 72 W/m² 16,1 km/h (3 Bft) 100,00 %
31.01.2026 10:20 4,7 °C 4,4 °C 1,1 °C 97 % 1002,0 hPa 0,0 l/m² 0 min 0 min 76 W/m² 25,7 km/h (4 Bft) 100,00 %
31.01.2026 10:22 4,7 °C 5,0 °C 1,1 °C 97 % 1002,0 hPa 0,0 l/m² 0 min 0 min 75 W/m² 22,5 km/h (4 Bft) 97,87 %
31.01.2026 10:24 4,8 °C 5,0 °C 1,1 °C 97 % 1002,0 hPa 0,0 l/m² 0 min 0 min 73 W/m² 16,1 km/h (3 Bft) 97,87 %
31.01.2026 10:26 4,8 °C 5,0 °C 1,1 °C 97 % 1002,0 hPa 0,0 l/m² 0 min 0 min 79 W/m² 32,2 km/h (5 Bft) 100,00 %
31.01.2026 10:28 4,8 °C 5,0 °C 1,1 °C 97 % 1002,0 hPa 0,0 l/m² 0 min 0 min 91 W/m² 25,7 km/h (4 Bft) 97,87 %
31.01.2026 10:30 4,8 °C 5,0 °C 1,1 °C 97 % 1002,0 hPa 0,0 l/m² 0 min 0 min 103 W/m² 22,5 km/h (4 Bft) 97,83 %
31.01.2026 10:32 4,8 °C 5,0 °C 1,1 °C 97 % 1002,0 hPa 0,0 l/m² 0 min 0 min 108 W/m² 25,7 km/h (4 Bft) 95,74 %
31.01.2026 10:34 4,8 °C 5,0 °C 1,1 °C 97 % 1002,0 hPa 0,0 l/m² 0 min 0 min 100 W/m² 22,5 km/h (4 Bft) 95,74 %
31.01.2026 10:36 4,9 °C 5,0 °C 1,1 °C 97 % 1002,0 hPa 0,0 l/m² 0 min 0 min 86 W/m² 19,3 km/h (3 Bft) 93,62 %
31.01.2026 10:38 4,9 °C 5,0 °C 1,1 °C 97 % 1002,1 hPa 0,0 l/m² 0 min 0 min 78 W/m² 25,7 km/h (4 Bft) 97,87 %
31.01.2026 10:40 4,9 °C 5,0 °C 1,1 °C 97 % 1002,1 hPa 0,0 l/m² 0 min 0 min 74 W/m² 19,3 km/h (3 Bft) 97,87 %
31.01.2026 10:42 4,9 °C 5,0 °C 1,1 °C 97 % 1002,1 hPa 0,0 l/m² 0 min 0 min 77 W/m² 25,7 km/h (4 Bft) 97,83 %
31.01.2026 10:44 4,9 °C 5,0 °C 1,1 °C 97 % 1002,1 hPa 0,0 l/m² 0 min 0 min 84 W/m² 19,3 km/h (3 Bft) 97,87 %
31.01.2026 10:46 4,9 °C 5,0 °C 1,1 °C 97 % 1002,2 hPa 0,0 l/m² 0 min 0 min 90 W/m² 16,1 km/h (3 Bft) 97,87 %
31.01.2026 10:48 5,0 °C 5,0 °C 1,1 °C 97 % 1002,2 hPa 0,0 l/m² 0 min 0 min 96 W/m² 25,7 km/h (4 Bft) 97,87 %
31.01.2026 10:50 5,0 °C 5,0 °C 1,7 °C 97 % 1002,2 hPa 0,0 l/m² 0 min 0 min 105 W/m² 22,5 km/h (4 Bft) 95,74 %
31.01.2026 10:52 5,1 °C 5,6 °C 1,7 °C 97 % 1002,2 hPa 0,0 l/m² 0 min 0 min 111 W/m² 19,3 km/h (3 Bft) 97,87 %
31.01.2026 10:54 5,1 °C 5,6 °C 1,7 °C 97 % 1002,3 hPa 0,0 l/m² 0 min 0 min 109 W/m² 19,3 km/h (3 Bft) 97,83 %
31.01.2026 10:56 5,1 °C 5,6 °C 1,7 °C 97 % 1002,3 hPa 0,0 l/m² 0 min 0 min 105 W/m² 19,3 km/h (3 Bft) 97,87 %
31.01.2026 10:58 5,1 °C 5,6 °C 1,7 °C 97 % 1002,3 hPa 0,0 l/m² 0 min 0 min 100 W/m² 22,5 km/h (4 Bft) 95,74 %
31.01.2026 11:00 5,1 °C 5,6 °C 1,7 °C 97 % 1002,3 hPa 0,0 l/m² 0 min 0 min 103 W/m² 19,3 km/h (3 Bft) 97,87 %
31.01.2026 11:02 5,2 °C 5,6 °C 1,7 °C 97 % 1002,3 hPa 0,0 l/m² 0 min 0 min 106 W/m² 12,9 km/h (3 Bft) 95,74 %
31.01.2026 11:04 5,2 °C 5,6 °C 1,7 °C 97 % 1002,3 hPa 0,0 l/m² 0 min 0 min 122 W/m² 22,5 km/h (4 Bft) 97,92 %
31.01.2026 11:06 5,2 °C 5,6 °C 1,7 °C 97 % 1002,4 hPa 0,0 l/m² 0 min 0 min 130 W/m² 29,0 km/h (5 Bft) 94,83 %
31.01.2026 11:08 5,2 °C 5,6 °C 1,7 °C 97 % 1002,4 hPa 0,0 l/m² 0 min 0 min 122 W/m² 16,1 km/h (3 Bft) 91,43 %
31.01.2026 11:10 5,3 °C 5,6 °C 1,7 °C 97 % 1002,4 hPa 0,0 l/m² 0 min 0 min 119 W/m² 25,7 km/h (4 Bft) 93,62 %
31.01.2026 11:12 5,3 °C 5,6 °C 1,7 °C 97 % 1002,4 hPa 0,0 l/m² 0 min 0 min 108 W/m² 19,3 km/h (3 Bft) 93,62 %
31.01.2026 11:14 5,3 °C 5,6 °C 1,7 °C 97 % 1002,5 hPa 0,0 l/m² 0 min 2 min 93 W/m² 25,7 km/h (4 Bft) 93,62 %
31.01.2026 11:16 5,3 °C 5,6 °C 1,7 °C 97 % 1002,5 hPa 0,0 l/m² 0 min 0 min 93 W/m² 19,3 km/h (3 Bft) 93,62 %
31.01.2026 11:18 5,4 °C 5,6 °C 1,7 °C 97 % 1002,5 hPa 0,0 l/m² 0 min 0 min 96 W/m² 22,5 km/h (4 Bft) 93,48 %
31.01.2026 11:20 5,4 °C 5,6 °C 1,7 °C 97 % 1002,4 hPa 0,0 l/m² 0 min 0 min 99 W/m² 19,3 km/h (3 Bft) 95,74 %
31.01.2026 11:22 5,4 °C 5,6 °C 1,7 °C 97 % 1002,5 hPa 0,0 l/m² 0 min 0 min 94 W/m² 16,1 km/h (3 Bft) 95,74 %
31.01.2026 11:24 5,4 °C 5,6 °C 1,7 °C 97 % 1002,5 hPa 0,0 l/m² 0 min 0 min 89 W/m² 19,3 km/h (3 Bft) 95,74 %
31.01.2026 11:26 5,4 °C 5,6 °C 1,7 °C 97 % 1002,5 hPa 0,0 l/m² 0 min 0 min 89 W/m² 19,3 km/h (3 Bft) 95,74 %
31.01.2026 11:28 5,4 °C 5,6 °C 1,7 °C 97 % 1002,5 hPa 0,0 l/m² 0 min 0 min 87 W/m² 19,3 km/h (3 Bft) 95,74 %
31.01.2026 11:30 5,4 °C 5,0 °C 1,7 °C 97 % 1002,6 hPa 0,0 l/m² 0 min 2 min 72 W/m² 19,3 km/h (3 Bft) 93,48 %
31.01.2026 11:32 5,4 °C 5,0 °C 1,7 °C 97 % 1002,5 hPa 0,0 l/m² 0 min 2 min 62 W/m² 19,3 km/h (3 Bft) 95,74 %
31.01.2026 11:34 5,4 °C 5,0 °C 1,7 °C 97 % 1002,6 hPa 0,0 l/m² 0 min 0 min 62 W/m² 22,5 km/h (4 Bft) 95,74 %
31.01.2026 11:36 5,4 °C 5,0 °C 1,7 °C 97 % 1002,6 hPa 0,0 l/m² 0 min 0 min 68 W/m² 29,0 km/h (5 Bft) 95,74 %
31.01.2026 11:38 5,4 °C 5,0 °C 1,7 °C 97 % 1002,6 hPa 0,2 l/m² 0 min 2 min 77 W/m² 19,3 km/h (3 Bft) 95,74 %
31.01.2026 11:40 5,4 °C 5,0 °C 1,7 °C 97 % 1002,5 hPa 0,0 l/m² 0 min 2 min 88 W/m² 16,1 km/h (3 Bft) 95,74 %
31.01.2026 11:42 5,4 °C 5,0 °C 1,7 °C 97 % 1002,5 hPa 0,0 l/m² 0 min 0 min 99 W/m² 19,3 km/h (3 Bft) 97,83 %
31.01.2026 11:44 5,4 °C 5,6 °C 1,7 °C 97 % 1002,5 hPa 0,0 l/m² 0 min 0 min 115 W/m² 16,1 km/h (3 Bft) 95,74 %
31.01.2026 11:46 5,4 °C 5,6 °C 1,7 °C 96 % 1002,5 hPa 0,0 l/m² 0 min 0 min 136 W/m² 22,5 km/h (4 Bft) 97,87 %
31.01.2026 11:48 5,4 °C 5,6 °C 1,7 °C 96 % 1002,5 hPa 0,0 l/m² 0 min 0 min 152 W/m² 19,3 km/h (3 Bft) 95,74 %
31.01.2026 11:50 5,4 °C 5,6 °C 1,7 °C 96 % 1002,5 hPa 0,0 l/m² 0 min 0 min 164 W/m² 12,9 km/h (3 Bft) 97,87 %
31.01.2026 11:52 5,5 °C 6,1 °C 1,7 °C 96 % 1002,5 hPa 0,0 l/m² 0 min 0 min 171 W/m² 19,3 km/h (3 Bft) 97,87 %
31.01.2026 11:54 5,5 °C 6,1 °C 1,7 °C 96 % 1002,6 hPa 0,0 l/m² 0 min 0 min 172 W/m² 19,3 km/h (3 Bft) 100,00 %
31.01.2026 11:56 5,6 °C 6,1 °C 1,7 °C 97 % 1002,5 hPa 0,0 l/m² 0 min 0 min 171 W/m² 19,3 km/h (3 Bft) 100,00 %
31.01.2026 11:58 5,6 °C 6,1 °C 1,7 °C 97 % 1002,6 hPa 0,0 l/m² 0 min 0 min 167 W/m² 16,1 km/h (3 Bft) 97,87 %
31.01.2026 12:00 5,7 °C 6,1 °C 1,7 °C 97 % 1002,6 hPa 0,0 l/m² 0 min 0 min 179 W/m² 22,5 km/h (4 Bft) 100,00 %
31.01.2026 12:02 5,7 °C 6,7 °C 2,2 °C 97 % 1002,6 hPa 0,0 l/m² 0 min 0 min 182 W/m² 19,3 km/h (3 Bft) 93,62 %
31.01.2026 12:04 5,7 °C 6,7 °C 2,2 °C 97 % 1002,6 hPa 0,0 l/m² 0 min 0 min 196 W/m² 19,3 km/h (3 Bft) 97,87 %
31.01.2026 12:07 5,8 °C 6,7 °C 2,2 °C 97 % 1002,7 hPa 0,0 l/m² 0 min 0 min 194 W/m² 19,3 km/h (3 Bft) 100,00 %
31.01.2026 12:08 5,8 °C 6,7 °C 2,2 °C 97 % 1002,7 hPa 0,0 l/m² 0 min 0 min 158 W/m² 16,1 km/h (3 Bft) 100,00 %
31.01.2026 12:12 5,9 °C 6,7 °C 2,2 °C 97 % 1002,7 hPa 0,0 l/m² 0 min 0 min 142 W/m² 19,3 km/h (3 Bft) 98,21 %
31.01.2026 12:14 5,9 °C 6,1 °C 2,2 °C 97 % 1002,7 hPa 0,0 l/m² 0 min 0 min 132 W/m² 29,0 km/h (5 Bft) 100,00 %
31.01.2026 12:16 5,9 °C 6,1 °C 2,2 °C 97 % 1002,7 hPa 0,0 l/m² 0 min 0 min 130 W/m² 22,5 km/h (4 Bft) 100,00 %
31.01.2026 12:18 5,9 °C 6,1 °C 2,2 °C 97 % 1002,8 hPa 0,0 l/m² 0 min 0 min 134 W/m² 22,5 km/h (4 Bft) 100,00 %
31.01.2026 12:20 5,9 °C 6,1 °C 2,2 °C 97 % 1002,8 hPa 0,0 l/m² 0 min 0 min 141 W/m² 19,3 km/h (3 Bft) 100,00 %
31.01.2026 12:22 5,9 °C 6,1 °C 2,2 °C 97 % 1002,7 hPa 0,0 l/m² 0 min 0 min 140 W/m² 19,3 km/h (3 Bft) 98,11 %
31.01.2026 12:24 5,9 °C 6,1 °C 2,2 °C 97 % 1002,7 hPa 0,0 l/m² 0 min 0 min 133 W/m² 25,7 km/h (4 Bft) 100,00 %
31.01.2026 12:26 5,9 °C 6,7 °C 2,2 °C 97 % 1002,7 hPa 0,0 l/m² 0 min 0 min 138 W/m² 19,3 km/h (3 Bft) 100,00 %
31.01.2026 12:28 5,9 °C 6,7 °C 2,2 °C 97 % 1002,7 hPa 0,0 l/m² 0 min 0 min 146 W/m² 12,9 km/h (3 Bft) 100,00 %
31.01.2026 12:30 6,0 °C 6,7 °C 2,2 °C 97 % 1002,8 hPa 0,0 l/m² 0 min 0 min 149 W/m² 22,5 km/h (4 Bft) 100,00 %
31.01.2026 12:32 6,0 °C 6,7 °C 2,2 °C 97 % 1002,7 hPa 0,0 l/m² 0 min 0 min 148 W/m² 16,1 km/h (3 Bft) 100,00 %
31.01.2026 12:34 6,0 °C 6,7 °C 2,2 °C 97 % 1002,7 hPa 0,0 l/m² 0 min 0 min 144 W/m² 32,2 km/h (5 Bft) 100,00 %
31.01.2026 12:36 6,1 °C 6,7 °C 2,2 °C 97 % 1002,8 hPa 0,0 l/m² 0 min 0 min 146 W/m² 16,1 km/h (3 Bft) 100,00 %
31.01.2026 12:38 6,1 °C 6,7 °C 2,2 °C 97 % 1002,7 hPa 0,0 l/m² 0 min 0 min 146 W/m² 16,1 km/h (3 Bft) 98,11 %
31.01.2026 12:40 6,1 °C 6,7 °C 2,2 °C 97 % 1002,8 hPa 0,0 l/m² 0 min 2 min 148 W/m² 19,3 km/h (3 Bft) 100,00 %
31.01.2026 12:42 6,1 °C 6,1 °C 2,2 °C 96 % 1002,8 hPa 0,0 l/m² 0 min 0 min 147 W/m² 22,5 km/h (4 Bft) 100,00 %
31.01.2026 12:44 6,1 °C 6,7 °C 2,2 °C 96 % 1002,8 hPa 0,0 l/m² 0 min 0 min 142 W/m² 19,3 km/h (3 Bft) 100,00 %
31.01.2026 12:46 6,1 °C 6,7 °C 2,2 °C 96 % 1002,8 hPa 0,0 l/m² 0 min 0 min 137 W/m² 16,1 km/h (3 Bft) 100,00 %
31.01.2026 12:48 6,1 °C 6,7 °C 2,2 °C 96 % 1002,9 hPa 0,0 l/m² 0 min 2 min 147 W/m² 22,5 km/h (4 Bft) 98,00 %
31.01.2026 12:50 6,2 °C 6,7 °C 2,2 °C 96 % 1002,8 hPa 0,0 l/m² 0 min 2 min 148 W/m² 16,1 km/h (3 Bft) 97,87 %
31.01.2026 12:52 6,2 °C 6,7 °C 2,2 °C 96 % 1002,9 hPa 0,0 l/m² 0 min 2 min 145 W/m² 12,9 km/h (3 Bft) 97,83 %
31.01.2026 12:54 6,2 °C 6,7 °C 2,2 °C 97 % 1002,9 hPa 0,0 l/m² 0 min 0 min 131 W/m² 12,9 km/h (3 Bft) 100,00 %
31.01.2026 12:56 6,2 °C 6,1 °C 2,2 °C 97 % 1002,9 hPa 0,0 l/m² 0 min 0 min 103 W/m² 19,3 km/h (3 Bft) 100,00 %
31.01.2026 12:58 6,3 °C 6,1 °C 2,2 °C 97 % 1002,9 hPa 0,0 l/m² 0 min 0 min 90 W/m² 22,5 km/h (4 Bft) 100,00 %
31.01.2026 13:00 6,3 °C 6,1 °C 2,2 °C 96 % 1002,9 hPa 0,0 l/m² 0 min 0 min 90 W/m² 19,3 km/h (3 Bft) 100,00 %
31.01.2026 13:02 6,2 °C 6,1 °C 2,2 °C 96 % 1003,0 hPa 0,0 l/m² 0 min 0 min 90 W/m² 16,1 km/h (3 Bft) 100,00 %
31.01.2026 13:04 6,2 °C 6,1 °C 2,2 °C 96 % 1003,0 hPa 0,0 l/m² 0 min 0 min 91 W/m² 22,5 km/h (4 Bft) 97,83 %
31.01.2026 13:06 6,2 °C 6,1 °C 2,2 °C 96 % 1003,0 hPa 0,0 l/m² 0 min 0 min 91 W/m² 19,3 km/h (3 Bft) 97,92 %
31.01.2026 13:08 6,2 °C 6,1 °C 2,2 °C 96 % 1003,0 hPa 0,0 l/m² 0 min 0 min 95 W/m² 16,1 km/h (3 Bft) 97,87 %
31.01.2026 13:10 6,2 °C 6,1 °C 2,2 °C 96 % 1002,9 hPa 0,0 l/m² 0 min 0 min 107 W/m² 19,3 km/h (3 Bft) 97,14 %
31.01.2026 13:12 6,2 °C 6,1 °C 2,2 °C 96 % 1002,9 hPa 0,0 l/m² 0 min 0 min 120 W/m² 12,9 km/h (3 Bft) 96,00 %
31.01.2026 13:14 6,2 °C 6,7 °C 2,2 °C 96 % 1002,9 hPa 0,0 l/m² 0 min 0 min 125 W/m² 12,9 km/h (3 Bft) 93,48 %
31.01.2026 13:16 6,2 °C 6,7 °C 2,8 °C 96 % 1002,9 hPa 0,0 l/m² 0 min 0 min 127 W/m² 19,3 km/h (3 Bft) 97,87 %
31.01.2026 13:18 6,3 °C 6,7 °C 2,8 °C 96 % 1002,9 hPa 0,0 l/m² 0 min 0 min 122 W/m² 16,1 km/h (3 Bft) 95,74 %
31.01.2026 13:20 6,3 °C 6,1 °C 2,8 °C 96 % 1002,9 hPa 0,0 l/m² 0 min 0 min 117 W/m² 19,3 km/h (3 Bft) 99,12 %
31.01.2026 13:22 6,3 °C 6,1 °C 2,8 °C 96 % 1002,9 hPa 0,0 l/m² 0 min 0 min 105 W/m² 19,3 km/h (3 Bft) 97,17 %
31.01.2026 13:24 6,3 °C 6,1 °C 2,8 °C 96 % 1002,9 hPa 0,0 l/m² 0 min 0 min 105 W/m² 16,1 km/h (3 Bft) 96,30 %
31.01.2026 13:26 6,3 °C 6,1 °C 2,8 °C 96 % 1002,9 hPa 0,0 l/m² 0 min 0 min 101 W/m² 16,1 km/h (3 Bft) 97,87 %
31.01.2026 13:28 6,3 °C 6,1 °C 2,2 °C 96 % 1002,9 hPa 0,0 l/m² 0 min 0 min 99 W/m² 16,1 km/h (3 Bft) 91,49 %
31.01.2026 13:30 6,3 °C 6,1 °C 2,2 °C 96 % 1002,9 hPa 0,0 l/m² 0 min 0 min 106 W/m² 16,1 km/h (3 Bft) 95,65 %
31.01.2026 13:32 6,3 °C 6,1 °C 2,8 °C 96 % 1003,0 hPa 0,0 l/m² 0 min 0 min 111 W/m² 19,3 km/h (3 Bft) 95,74 %
31.01.2026 13:34 6,3 °C 6,1 °C 2,8 °C 96 % 1002,9 hPa 0,0 l/m² 0 min 0 min 113 W/m² 16,1 km/h (3 Bft) 95,74 %
31.01.2026 13:36 6,3 °C 6,7 °C 2,8 °C 96 % 1003,0 hPa 0,0 l/m² 0 min 0 min 113 W/m² 19,3 km/h (3 Bft) 95,74 %
31.01.2026 13:38 6,3 °C 6,7 °C 2,8 °C 96 % 1003,1 hPa 0,0 l/m² 0 min 0 min 116 W/m² 16,1 km/h (3 Bft) 95,74 %
31.01.2026 13:40 6,3 °C 6,7 °C 2,8 °C 96 % 1003,0 hPa 0,0 l/m² 0 min 0 min 120 W/m² 19,3 km/h (3 Bft) 97,87 %
31.01.2026 13:42 6,3 °C 6,7 °C 2,8 °C 96 % 1003,1 hPa 0,0 l/m² 0 min 0 min 116 W/m² 22,5 km/h (4 Bft) 95,65 %
31.01.2026 13:44 6,3 °C 6,7 °C 2,8 °C 96 % 1003,0 hPa 0,0 l/m² 0 min 0 min 110 W/m² 16,1 km/h (3 Bft) 95,74 %
31.01.2026 13:46 6,3 °C 6,7 °C 2,8 °C 96 % 1003,0 hPa 0,0 l/m² 0 min 0 min 109 W/m² 9,7 km/h (2 Bft) 95,74 %
31.01.2026 13:48 6,4 °C 6,7 °C 2,8 °C 96 % 1003,0 hPa 0,0 l/m² 0 min 0 min 107 W/m² 22,5 km/h (4 Bft) 95,74 %
31.01.2026 13:50 6,4 °C 6,7 °C 2,8 °C 96 % 1003,1 hPa 0,0 l/m² 0 min 0 min 103 W/m² 16,1 km/h (3 Bft) 95,74 %
31.01.2026 13:52 6,4 °C 6,7 °C 2,8 °C 96 % 1003,1 hPa 0,0 l/m² 0 min 0 min 106 W/m² 16,1 km/h (3 Bft) 95,74 %
31.01.2026 13:54 6,4 °C 6,7 °C 2,8 °C 96 % 1003,1 hPa 0,0 l/m² 0 min 0 min 112 W/m² 19,3 km/h (3 Bft) 95,65 %
31.01.2026 13:56 6,4 °C 6,7 °C 2,8 °C 96 % 1003,1 hPa 0,0 l/m² 0 min 0 min 122 W/m² 12,9 km/h (3 Bft) 95,74 %
31.01.2026 13:58 6,4 °C 6,7 °C 3,3 °C 96 % 1003,1 hPa 0,0 l/m² 0 min 0 min 135 W/m² 12,9 km/h (3 Bft) 97,87 %
31.01.2026 14:00 6,5 °C 6,7 °C 3,3 °C 96 % 1003,1 hPa 0,0 l/m² 0 min 0 min 138 W/m² 16,1 km/h (3 Bft) 93,62 %
31.01.2026 14:02 6,5 °C 7,2 °C 3,3 °C 96 % 1003,1 hPa 0,0 l/m² 0 min 0 min 141 W/m² 19,3 km/h (3 Bft) 93,62 %
31.01.2026 14:04 6,5 °C 7,2 °C 3,3 °C 96 % 1003,1 hPa 0,0 l/m² 0 min 0 min 159 W/m² 19,3 km/h (3 Bft) 95,83 %
31.01.2026 14:06 6,6 °C 7,8 °C 3,3 °C 96 % 1003,2 hPa 0,0 l/m² 2 min 0 min 207 W/m² 19,3 km/h (3 Bft) 96,43 %
31.01.2026 14:08 6,6 °C 7,8 °C 3,3 °C 95 % 1003,1 hPa 0,0 l/m² 2 min 0 min 236 W/m² 16,1 km/h (3 Bft) 91,89 %
31.01.2026 14:10 6,6 °C 8,3 °C 3,3 °C 95 % 1003,1 hPa 0,0 l/m² 2 min 0 min 233 W/m² 16,1 km/h (3 Bft) 93,62 %
31.01.2026 14:12 6,7 °C 8,3 °C 3,3 °C 95 % 1003,2 hPa 0,0 l/m² 2 min 0 min 211 W/m² 22,5 km/h (4 Bft) 95,83 %
31.01.2026 14:14 6,7 °C 8,3 °C 3,3 °C 96 % 1003,2 hPa 0,0 l/m² 2 min 0 min 188 W/m² 22,5 km/h (4 Bft) 97,87 %
31.01.2026 14:16 6,8 °C 7,8 °C 3,3 °C 95 % 1003,2 hPa 0,0 l/m² 0 min 0 min 167 W/m² 16,1 km/h (3 Bft) 95,65 %
31.01.2026 14:18 6,8 °C 7,8 °C 3,3 °C 95 % 1003,2 hPa 0,0 l/m² 0 min 0 min 145 W/m² 19,3 km/h (3 Bft) 97,87 %
31.01.2026 14:20 6,8 °C 7,8 °C 3,3 °C 95 % 1003,2 hPa 0,0 l/m² 0 min 0 min 120 W/m² 12,9 km/h (3 Bft) 97,87 %
31.01.2026 14:22 6,8 °C 7,2 °C 3,3 °C 95 % 1003,2 hPa 0,0 l/m² 0 min 0 min 100 W/m² 12,9 km/h (3 Bft) 97,87 %
31.01.2026 14:24 6,9 °C 7,2 °C 3,3 °C 95 % 1003,2 hPa 0,0 l/m² 0 min 0 min 96 W/m² 16,1 km/h (3 Bft) 97,87 %
31.01.2026 14:26 6,9 °C 7,8 °C 3,3 °C 95 % 1003,2 hPa 0,0 l/m² 0 min 0 min 116 W/m² 19,3 km/h (3 Bft) 97,87 %
31.01.2026 14:28 6,9 °C 7,2 °C 3,3 °C 95 % 1003,3 hPa 0,0 l/m² 0 min 0 min 103 W/m² 12,9 km/h (3 Bft) 97,83 %
31.01.2026 14:30 6,9 °C 7,2 °C 3,3 °C 95 % 1003,3 hPa 0,0 l/m² 0 min 0 min 91 W/m² 16,1 km/h (3 Bft) 100,00 %
31.01.2026 14:32 6,9 °C 7,2 °C 3,3 °C 95 % 1003,3 hPa 0,0 l/m² 0 min 0 min 95 W/m² 16,1 km/h (3 Bft) 100,00 %
31.01.2026 14:34 6,9 °C 7,2 °C 3,3 °C 95 % 1003,4 hPa 0,0 l/m² 0 min 0 min 94 W/m² 19,3 km/h (3 Bft) 100,00 %
31.01.2026 14:36 6,9 °C 7,2 °C 3,3 °C 95 % 1003,4 hPa 0,0 l/m² 0 min 0 min 93 W/m² 16,1 km/h (3 Bft) 37,50 %
31.01.2026 14:38 6,9 °C 6,7 °C 3,3 °C 95 % 1003,4 hPa 0,0 l/m² 0 min 0 min 102 W/m² 16,1 km/h (3 Bft) 100,00 %
31.01.2026 14:40 6,9 °C 7,2 °C 3,3 °C 94 % 1003,4 hPa 0,0 l/m² 0 min 0 min 105 W/m² 12,9 km/h (3 Bft) 97,83 %
31.01.2026 14:42 6,9 °C 7,2 °C 3,3 °C 94 % 1003,4 hPa 0,0 l/m² 0 min 0 min 112 W/m² 9,7 km/h (2 Bft) 100,00 %
31.01.2026 14:44 6,9 °C 7,2 °C 3,3 °C 94 % 1003,4 hPa 0,0 l/m² 0 min 0 min 113 W/m² 12,9 km/h (3 Bft) 100,00 %
31.01.2026 14:46 6,9 °C 7,2 °C 3,3 °C 94 % 1003,4 hPa 0,0 l/m² 0 min 0 min 111 W/m² 16,1 km/h (3 Bft) 97,87 %
31.01.2026 14:48 6,9 °C 7,2 °C 3,3 °C 94 % 1003,4 hPa 0,0 l/m² 0 min 0 min 105 W/m² 16,1 km/h (3 Bft) 100,00 %
31.01.2026 14:50 6,9 °C 7,2 °C 3,3 °C 94 % 1003,4 hPa 0,0 l/m² 0 min 0 min 102 W/m² 9,7 km/h (2 Bft) 97,87 %
31.01.2026 14:52 7,0 °C 7,2 °C 3,3 °C 94 % 1003,4 hPa 0,0 l/m² 0 min 0 min 100 W/m² 16,1 km/h (3 Bft) 100,00 %
31.01.2026 14:54 7,0 °C 7,2 °C 3,3 °C 94 % 1003,5 hPa 0,0 l/m² 0 min 0 min 100 W/m² 12,9 km/h (3 Bft) 100,00 %
31.01.2026 14:56 7,0 °C 7,2 °C 3,3 °C 94 % 1003,5 hPa 0,0 l/m² 0 min 0 min 99 W/m² 16,1 km/h (3 Bft) 97,87 %
31.01.2026 14:58 7,1 °C 7,2 °C 3,3 °C 94 % 1003,5 hPa 0,0 l/m² 0 min 0 min 91 W/m² 12,9 km/h (3 Bft) 100,00 %
31.01.2026 15:00 7,1 °C 7,2 °C 3,3 °C 94 % 1003,5 hPa 0,0 l/m² 0 min 0 min 83 W/m² 9,7 km/h (2 Bft) 100,00 %
31.01.2026 15:02 7,1 °C 7,2 °C 3,3 °C 94 % 1003,5 hPa 0,0 l/m² 0 min 0 min 80 W/m² 12,9 km/h (3 Bft) 100,00 %
31.01.2026 15:04 7,1 °C 7,2 °C 3,3 °C 94 % 1003,6 hPa 0,0 l/m² 0 min 0 min 78 W/m² 9,7 km/h (2 Bft) 97,96 %
31.01.2026 15:06 7,1 °C 7,2 °C 3,3 °C 94 % 1003,6 hPa 0,0 l/m² 0 min 0 min 74 W/m² 12,9 km/h (3 Bft) 96,61 %
31.01.2026 15:08 7,1 °C 6,7 °C 3,3 °C 94 % 1003,7 hPa 0,0 l/m² 0 min 0 min 70 W/m² 16,1 km/h (3 Bft) 97,14 %
31.01.2026 15:10 7,1 °C 6,7 °C 3,3 °C 94 % 1003,7 hPa 0,0 l/m² 0 min 0 min 65 W/m² 16,1 km/h (3 Bft) 97,87 %
31.01.2026 15:12 7,1 °C 6,7 °C 3,3 °C 94 % 1003,7 hPa 0,0 l/m² 0 min 0 min 59 W/m² 16,1 km/h (3 Bft) 97,14 %
31.01.2026 15:14 7,1 °C 6,7 °C 3,3 °C 94 % 1003,7 hPa 0,0 l/m² 0 min 0 min 58 W/m² 6,4 km/h (2 Bft) 97,87 %
31.01.2026 15:16 7,1 °C 6,7 °C 3,3 °C 94 % 1003,7 hPa 0,0 l/m² 0 min 0 min 62 W/m² 6,4 km/h (2 Bft) 97,87 %
31.01.2026 15:18 7,1 °C 7,2 °C 3,3 °C 94 % 1003,7 hPa 0,0 l/m² 0 min 0 min 68 W/m² 6,4 km/h (2 Bft) 97,83 %
31.01.2026 15:20 7,1 °C 7,2 °C 3,3 °C 94 % 1003,7 hPa 0,0 l/m² 0 min 0 min 72 W/m² 12,9 km/h (3 Bft) 95,74 %
31.01.2026 15:22 7,1 °C 7,2 °C 3,3 °C 94 % 1003,7 hPa 0,0 l/m² 0 min 0 min 80 W/m² 6,4 km/h (2 Bft) 97,87 %
31.01.2026 15:24 7,1 °C 7,2 °C 3,3 °C 94 % 1003,8 hPa 0,0 l/m² 0 min 0 min 91 W/m² 6,4 km/h (2 Bft) 97,87 %
31.01.2026 15:26 7,1 °C 7,2 °C 3,3 °C 94 % 1003,9 hPa 0,0 l/m² 0 min 0 min 98 W/m² 16,1 km/h (3 Bft) 97,87 %
31.01.2026 15:28 7,1 °C 7,2 °C 3,3 °C 94 % 1003,8 hPa 0,0 l/m² 0 min 0 min 104 W/m² 12,9 km/h (3 Bft) 95,74 %
31.01.2026 15:30 7,1 °C 7,2 °C 3,3 °C 94 % 1003,8 hPa 0,0 l/m² 0 min 0 min 104 W/m² 12,9 km/h (3 Bft) 97,83 %
31.01.2026 15:32 7,1 °C 7,2 °C 3,3 °C 94 % 1003,9 hPa 0,0 l/m² 0 min 0 min 93 W/m² 16,1 km/h (3 Bft) 95,74 %
31.01.2026 15:34 7,1 °C 7,2 °C 3,3 °C 94 % 1003,9 hPa 0,0 l/m² 0 min 0 min 83 W/m² 12,9 km/h (3 Bft) 97,87 %
31.01.2026 15:36 7,2 °C 7,2 °C 3,3 °C 94 % 1004,0 hPa 0,0 l/m² 0 min 0 min 79 W/m² 12,9 km/h (3 Bft) 91,49 %
31.01.2026 15:38 7,2 °C 7,2 °C 3,3 °C 94 % 1004,0 hPa 0,0 l/m² 0 min 0 min 74 W/m² 9,7 km/h (2 Bft) 97,87 %
31.01.2026 15:40 7,2 °C 7,2 °C 3,3 °C 94 % 1004,0 hPa 0,0 l/m² 0 min 0 min 70 W/m² 12,9 km/h (3 Bft) 97,83 %
31.01.2026 15:42 7,2 °C 7,2 °C 3,3 °C 94 % 1004,0 hPa 0,0 l/m² 0 min 0 min 72 W/m² 9,7 km/h (2 Bft) 100,00 %
31.01.2026 15:44 7,2 °C 7,2 °C 3,3 °C 94 % 1004,1 hPa 0,0 l/m² 0 min 0 min 74 W/m² 12,9 km/h (3 Bft) 97,87 %
31.01.2026 15:46 7,2 °C 7,2 °C 3,3 °C 94 % 1004,1 hPa 0,0 l/m² 0 min 0 min 73 W/m² 16,1 km/h (3 Bft) 100,00 %
31.01.2026 15:48 7,2 °C 7,2 °C 3,3 °C 94 % 1004,1 hPa 0,0 l/m² 0 min 0 min 77 W/m² 16,1 km/h (3 Bft) 100,00 %
31.01.2026 15:50 7,2 °C 7,2 °C 3,3 °C 94 % 1004,1 hPa 0,0 l/m² 0 min 0 min 81 W/m² 12,9 km/h (3 Bft) 100,00 %
31.01.2026 15:52 7,2 °C 7,2 °C 3,3 °C 94 % 1004,2 hPa 0,0 l/m² 0 min 0 min 85 W/m² 12,9 km/h (3 Bft) 100,00 %
31.01.2026 15:56 7,2 °C 7,2 °C 3,3 °C 94 % 1004,2 hPa 0,0 l/m² 4 min 0 min 118 W/m² 12,9 km/h (3 Bft) 100,00 %
31.01.2026 15:58 7,2 °C 7,2 °C 3,3 °C 94 % 1004,2 hPa 0,0 l/m² 2 min 0 min 123 W/m² 12,9 km/h (3 Bft) 95,83 %
31.01.2026 16:00 7,2 °C 7,8 °C 3,3 °C 94 % 1004,2 hPa 0,0 l/m² 2 min 0 min 122 W/m² 12,9 km/h (3 Bft) 97,83 %
31.01.2026 16:02 7,2 °C 7,8 °C 3,3 °C 94 % 1004,2 hPa 0,0 l/m² 2 min 0 min 111 W/m² 12,9 km/h (3 Bft) 97,87 %
31.01.2026 16:04 7,3 °C 7,8 °C 3,3 °C 94 % 1004,2 hPa 0,0 l/m² 2 min 0 min 94 W/m² 12,9 km/h (3 Bft) 97,96 %
31.01.2026 16:06 7,3 °C 7,2 °C 3,3 °C 94 % 1004,3 hPa 0,0 l/m² 0 min 0 min 78 W/m² 12,9 km/h (3 Bft) 100,00 %
31.01.2026 16:08 7,3 °C 7,2 °C 3,3 °C 94 % 1004,3 hPa 0,0 l/m² 0 min 0 min 67 W/m² 12,9 km/h (3 Bft) 100,00 %
31.01.2026 16:10 7,3 °C 7,2 °C 3,3 °C 94 % 1004,3 hPa 0,0 l/m² 0 min 0 min 58 W/m² 12,9 km/h (3 Bft) 100,00 %
31.01.2026 16:12 7,3 °C 7,2 °C 3,3 °C 94 % 1004,3 hPa 0,0 l/m² 0 min 0 min 51 W/m² 16,1 km/h (3 Bft) 98,11 %
31.01.2026 16:14 7,3 °C 7,2 °C 3,3 °C 94 % 1004,3 hPa 0,0 l/m² 0 min 0 min 47 W/m² 12,9 km/h (3 Bft) 97,83 %
31.01.2026 16:16 7,3 °C 6,7 °C 3,3 °C 94 % 1004,3 hPa 0,0 l/m² 0 min 0 min 43 W/m² 9,7 km/h (2 Bft) 97,87 %
31.01.2026 16:18 7,3 °C 6,7 °C 3,3 °C 94 % 1004,3 hPa 0,0 l/m² 0 min 0 min 41 W/m² 6,4 km/h (2 Bft) 95,74 %
31.01.2026 16:20 7,2 °C 6,7 °C 3,3 °C 93 % 1004,4 hPa 0,0 l/m² 0 min 0 min 35 W/m² 12,9 km/h (3 Bft) 97,87 %
31.01.2026 16:22 7,2 °C 6,7 °C 3,3 °C 93 % 1004,4 hPa 0,0 l/m² 0 min 0 min 31 W/m² 19,3 km/h (3 Bft) 97,87 %
31.01.2026 16:25 7,2 °C 6,7 °C 3,3 °C 93 % 1004,5 hPa 0,0 l/m² 0 min 0 min 28 W/m² 19,3 km/h (3 Bft) 99,12 %
31.01.2026 16:32 7,1 °C 6,7 °C 3,3 °C 93 % 1004,5 hPa 0,0 l/m² 0 min 0 min 21 W/m² 6,4 km/h (2 Bft) 93,48 %
31.01.2026 16:34 7,1 °C 6,7 °C 2,8 °C 93 % 1004,4 hPa 0,0 l/m² 0 min 0 min 17 W/m² 3,2 km/h (1 Bft) 94,00 %
31.01.2026 16:36 7,1 °C 6,1 °C 2,8 °C 93 % 1004,5 hPa 0,0 l/m² 0 min 0 min 15 W/m² 6,4 km/h (2 Bft) 95,65 %
31.01.2026 16:38 7,1 °C 6,1 °C 2,8 °C 93 % 1004,6 hPa 0,0 l/m² 0 min 0 min 13 W/m² 6,4 km/h (2 Bft) 95,74 %
31.01.2026 16:40 7,1 °C 6,1 °C 2,8 °C 93 % 1004,6 hPa 0,0 l/m² 0 min 0 min 12 W/m² 12,9 km/h (3 Bft) 95,74 %
31.01.2026 16:42 7,1 °C 6,1 °C 2,8 °C 93 % 1004,6 hPa 0,0 l/m² 0 min 0 min 12 W/m² 3,2 km/h (1 Bft) 95,74 %
31.01.2026 16:44 7,1 °C 6,1 °C 2,8 °C 93 % 1004,6 hPa 0,0 l/m² 0 min 0 min 12 W/m² 9,7 km/h (2 Bft) 93,75 %
31.01.2026 16:46 7,1 °C 6,1 °C 2,8 °C 93 % 1004,6 hPa 0,0 l/m² 0 min 0 min 11 W/m² 6,4 km/h (2 Bft) 93,62 %
31.01.2026 16:48 7,1 °C 6,1 °C 2,8 °C 93 % 1004,6 hPa 0,0 l/m² 0 min 0 min 11 W/m² 12,9 km/h (3 Bft) 95,65 %
31.01.2026 16:50 7,0 °C 6,1 °C 2,8 °C 93 % 1004,7 hPa 0,0 l/m² 0 min 0 min 11 W/m² 6,4 km/h (2 Bft) 93,62 %
31.01.2026 16:52 7,0 °C 6,1 °C 2,8 °C 93 % 1004,7 hPa 0,0 l/m² 0 min 0 min 10 W/m² 6,4 km/h (2 Bft) 95,74 %
31.01.2026 16:54 7,0 °C 6,1 °C 2,8 °C 93 % 1004,7 hPa 0,0 l/m² 0 min 0 min 9 W/m² 9,7 km/h (2 Bft) 93,62 %
31.01.2026 16:56 7,0 °C 6,1 °C 2,8 °C 93 % 1004,7 hPa 0,0 l/m² 0 min 0 min 7 W/m² 6,4 km/h (2 Bft) 91,49 %
31.01.2026 16:58 6,9 °C 6,1 °C 2,8 °C 93 % 1004,8 hPa 0,0 l/m² 0 min 0 min 7 W/m² 6,4 km/h (2 Bft) 95,74 %
31.01.2026 17:00 6,9 °C 6,1 °C 2,8 °C 93 % 1004,8 hPa 0,0 l/m² 0 min 0 min 7 W/m² 12,9 km/h (3 Bft) 97,83 %
31.01.2026 17:02 6,9 °C 6,1 °C 2,8 °C 93 % 1004,8 hPa 0,0 l/m² 0 min 0 min 7 W/m² 12,9 km/h (3 Bft) 95,74 %
31.01.2026 17:04 6,9 °C 6,1 °C 2,8 °C 93 % 1004,8 hPa 0,0 l/m² 0 min 0 min 5 W/m² 12,9 km/h (3 Bft) 95,74 %
31.01.2026 17:06 6,9 °C 6,1 °C 2,8 °C 93 % 1004,8 hPa 0,0 l/m² 0 min 0 min 5 W/m² 12,9 km/h (3 Bft) 97,92 %
31.01.2026 17:08 6,9 °C 6,1 °C 2,8 °C 93 % 1004,8 hPa 0,0 l/m² 0 min 0 min 5 W/m² 6,4 km/h (2 Bft) 95,83 %
31.01.2026 17:10 6,8 °C 6,1 °C 2,8 °C 93 % 1004,8 hPa 0,0 l/m² 0 min 0 min 4 W/m² 16,1 km/h (3 Bft) 94,29 %
31.01.2026 17:12 6,8 °C 6,1 °C 2,8 °C 93 % 1004,8 hPa 0,0 l/m² 0 min 0 min 0 W/m² 16,1 km/h (3 Bft) 95,74 %
31.01.2026 17:14 6,8 °C 6,1 °C 2,8 °C 93 % 1004,8 hPa 0,0 l/m² 0 min 0 min 0 W/m² 6,4 km/h (2 Bft) 97,87 %
31.01.2026 17:16 6,8 °C 6,1 °C 2,8 °C 93 % 1004,8 hPa 0,0 l/m² 0 min 0 min 0 W/m² 9,7 km/h (2 Bft) 97,87 %
31.01.2026 17:18 6,8 °C 6,1 °C 2,8 °C 93 % 1004,9 hPa 0,0 l/m² 0 min 0 min 0 W/m² 6,4 km/h (2 Bft) 97,83 %
31.01.2026 17:20 6,8 °C 6,1 °C 2,8 °C 93 % 1005,0 hPa 0,0 l/m² 0 min 0 min 0 W/m² 9,7 km/h (2 Bft) 97,87 %
31.01.2026 17:22 6,8 °C 6,1 °C 2,8 °C 93 % 1005,1 hPa 0,0 l/m² 0 min 0 min 0 W/m² 9,7 km/h (2 Bft) 97,87 %
31.01.2026 17:24 6,8 °C 6,1 °C 2,8 °C 93 % 1005,1 hPa 0,0 l/m² 0 min 0 min 0 W/m² 9,7 km/h (2 Bft) 97,87 %
31.01.2026 17:26 6,7 °C 6,1 °C 2,8 °C 93 % 1005,1 hPa 0,0 l/m² 0 min 0 min 0 W/m² 3,2 km/h (1 Bft) 95,74 %
31.01.2026 17:28 6,7 °C 6,1 °C 2,8 °C 93 % 1005,1 hPa 0,0 l/m² 0 min 0 min 0 W/m² 12,9 km/h (3 Bft) 95,74 %
31.01.2026 17:30 6,7 °C 6,1 °C 2,8 °C 93 % 1005,2 hPa 0,0 l/m² 0 min 0 min 0 W/m² 6,4 km/h (2 Bft) 97,83 %
31.01.2026 17:32 6,7 °C 6,1 °C 2,8 °C 93 % 1005,2 hPa 0,0 l/m² 0 min 0 min 0 W/m² 6,4 km/h (2 Bft) 95,74 %
31.01.2026 17:34 6,7 °C 6,1 °C 2,8 °C 93 % 1005,2 hPa 0,0 l/m² 0 min 0 min 0 W/m² 6,4 km/h (2 Bft) 97,87 %
31.01.2026 17:36 6,7 °C 6,1 °C 2,8 °C 93 % 1005,2 hPa 0,0 l/m² 0 min 0 min 0 W/m² 6,4 km/h (2 Bft) 97,87 %
31.01.2026 17:38 6,7 °C 6,1 °C 2,8 °C 93 % 1005,3 hPa 0,0 l/m² 0 min 0 min 0 W/m² 6,4 km/h (2 Bft) 97,87 %
31.01.2026 17:40 6,7 °C 6,1 °C 2,8 °C 93 % 1005,2 hPa 0,0 l/m² 0 min 0 min 0 W/m² 3,2 km/h (1 Bft) 100,00 %
31.01.2026 17:42 6,7 °C 6,1 °C 2,8 °C 93 % 1005,3 hPa 0,0 l/m² 0 min 0 min 0 W/m² 6,4 km/h (2 Bft) 100,00 %
31.01.2026 17:44 6,7 °C 6,1 °C 2,8 °C 93 % 1005,3 hPa 0,0 l/m² 0 min 0 min 0 W/m² 6,4 km/h (2 Bft) 100,00 %
31.01.2026 17:46 6,7 °C 6,1 °C 2,8 °C 93 % 1005,3 hPa 0,0 l/m² 0 min 0 min 0 W/m² 6,4 km/h (2 Bft) 100,00 %
31.01.2026 17:48 6,7 °C 6,1 °C 2,8 °C 93 % 1005,3 hPa 0,0 l/m² 0 min 0 min 0 W/m² 12,9 km/h (3 Bft) 100,00 %
31.01.2026 17:50 6,7 °C 6,1 °C 2,8 °C 93 % 1005,2 hPa 0,0 l/m² 0 min 0 min 0 W/m² 16,1 km/h (3 Bft) 100,00 %
31.01.2026 17:52 6,6 °C 6,1 °C 2,8 °C 93 % 1005,2 hPa 0,0 l/m² 0 min 0 min 0 W/m² 16,1 km/h (3 Bft) 97,83 %
31.01.2026 17:54 6,7 °C 6,1 °C 2,8 °C 93 % 1005,3 hPa 0,0 l/m² 0 min 0 min 0 W/m² 12,9 km/h (3 Bft) 95,74 %
31.01.2026 17:56 6,6 °C 6,1 °C 2,8 °C 93 % 1005,3 hPa 0,0 l/m² 0 min 0 min 0 W/m² 12,9 km/h (3 Bft) 97,87 %
31.01.2026 17:58 6,6 °C 6,1 °C 2,8 °C 93 % 1005,4 hPa 0,0 l/m² 0 min 0 min 0 W/m² 12,9 km/h (3 Bft) 100,00 %
31.01.2026 18:00 6,6 °C 6,1 °C 2,8 °C 93 % 1005,4 hPa 0,0 l/m² 0 min 0 min 0 W/m² 6,4 km/h (2 Bft) 100,00 %
31.01.2026 18:02 6,6 °C 6,1 °C 2,8 °C 93 % 1005,4 hPa 0,0 l/m² 0 min 0 min 0 W/m² 6,4 km/h (2 Bft) 97,87 %
31.01.2026 18:04 6,6 °C 6,1 °C 2,8 °C 93 % 1005,5 hPa 0,0 l/m² 0 min 0 min 0 W/m² 6,4 km/h (2 Bft) 100,00 %
31.01.2026 18:08 6,6 °C 6,1 °C 2,8 °C 93 % 1005,5 hPa 0,0 l/m² 0 min 0 min 0 W/m² 6,4 km/h (2 Bft) 98,94 %
31.01.2026 18:10 6,6 °C 6,1 °C 2,8 °C 93 % 1005,5 hPa 0,0 l/m² 0 min 0 min 0 W/m² 12,9 km/h (3 Bft) 100,00 %
31.01.2026 18:12 6,6 °C 6,1 °C 2,8 °C 93 % 1005,5 hPa 0,0 l/m² 0 min 0 min 0 W/m² 6,4 km/h (2 Bft) 97,87 %
31.01.2026 18:14 6,6 °C 6,1 °C 2,8 °C 93 % 1005,5 hPa 0,0 l/m² 0 min 0 min 0 W/m² 6,4 km/h (2 Bft) 100,00 %
31.01.2026 18:16 6,6 °C 5,6 °C 2,8 °C 93 % 1005,5 hPa 0,0 l/m² 0 min 0 min 0 W/m² 6,4 km/h (2 Bft) 95,65 %
31.01.2026 18:18 6,6 °C 5,6 °C 2,8 °C 93 % 1005,6 hPa 0,0 l/m² 0 min 0 min 0 W/m² 6,4 km/h (2 Bft) 100,00 %
31.01.2026 18:20 6,5 °C 5,6 °C 2,2 °C 93 % 1005,6 hPa 0,0 l/m² 0 min 0 min 0 W/m² 6,4 km/h (2 Bft) 100,00 %
31.01.2026 18:22 6,5 °C 5,6 °C 2,2 °C 93 % 1005,7 hPa 0,0 l/m² 0 min 0 min 0 W/m² 6,4 km/h (2 Bft) 97,87 %
31.01.2026 18:24 6,5 °C 5,6 °C 2,2 °C 93 % 1005,7 hPa 0,0 l/m² 0 min 0 min 0 W/m² 6,4 km/h (2 Bft) 100,00 %
31.01.2026 18:26 6,5 °C 5,6 °C 2,2 °C 93 % 1005,7 hPa 0,0 l/m² 0 min 0 min 0 W/m² 9,7 km/h (2 Bft) 100,00 %
31.01.2026 18:28 6,5 °C 5,6 °C 2,2 °C 93 % 1005,7 hPa 0,0 l/m² 0 min 0 min 0 W/m² 6,4 km/h (2 Bft) 100,00 %
31.01.2026 18:30 6,5 °C 5,6 °C 2,2 °C 93 % 1005,7 hPa 0,0 l/m² 0 min 0 min 0 W/m² 12,9 km/h (3 Bft) 100,00 %
31.01.2026 18:32 6,5 °C 5,6 °C 2,2 °C 93 % 1005,8 hPa 0,0 l/m² 0 min 0 min 0 W/m² 12,9 km/h (3 Bft) 100,00 %
31.01.2026 18:34 6,5 °C 5,6 °C 2,2 °C 93 % 1005,8 hPa 0,0 l/m² 0 min 0 min 0 W/m² 12,9 km/h (3 Bft) 97,87 %
31.01.2026 18:36 6,5 °C 5,6 °C 2,2 °C 93 % 1005,8 hPa 0,0 l/m² 0 min 0 min 0 W/m² 12,9 km/h (3 Bft) 100,00 %
31.01.2026 18:38 6,4 °C 5,6 °C 2,2 °C 93 % 1005,8 hPa 0,0 l/m² 0 min 0 min 0 W/m² 6,4 km/h (2 Bft) 97,83 %
31.01.2026 18:40 6,4 °C 5,6 °C 2,2 °C 93 % 1005,8 hPa 0,0 l/m² 0 min 0 min 0 W/m² 12,9 km/h (3 Bft) 100,00 %
31.01.2026 18:42 6,4 °C 5,6 °C 2,2 °C 93 % 1005,8 hPa 0,0 l/m² 0 min 0 min 0 W/m² 6,4 km/h (2 Bft) 100,00 %
31.01.2026 18:44 6,4 °C 5,6 °C 2,2 °C 93 % 1005,8 hPa 0,0 l/m² 0 min 0 min 0 W/m² 16,1 km/h (3 Bft) 100,00 %
31.01.2026 18:46 6,4 °C 5,6 °C 2,2 °C 93 % 1005,9 hPa 0,0 l/m² 0 min 0 min 0 W/m² 19,3 km/h (3 Bft) 100,00 %
31.01.2026 18:48 6,4 °C 5,6 °C 2,2 °C 93 % 1005,9 hPa 0,0 l/m² 0 min 0 min 0 W/m² 12,9 km/h (3 Bft) 97,87 %
31.01.2026 18:50 6,4 °C 5,6 °C 2,2 °C 93 % 1005,9 hPa 0,0 l/m² 0 min 0 min 0 W/m² 12,9 km/h (3 Bft) 100,00 %
31.01.2026 18:52 6,4 °C 5,6 °C 2,2 °C 93 % 1005,9 hPa 0,0 l/m² 0 min 0 min 0 W/m² 12,9 km/h (3 Bft) 100,00 %
31.01.2026 18:54 6,4 °C 5,6 °C 2,2 °C 93 % 1006,0 hPa 0,0 l/m² 0 min 0 min 0 W/m² 9,7 km/h (2 Bft) 100,00 %
31.01.2026 18:56 6,4 °C 5,6 °C 2,2 °C 93 % 1006,0 hPa 0,0 l/m² 0 min 0 min 0 W/m² 16,1 km/h (3 Bft) 100,00 %
31.01.2026 18:58 6,3 °C 5,6 °C 2,2 °C 93 % 1006,0 hPa 0,0 l/m² 0 min 0 min 0 W/m² 9,7 km/h (2 Bft) 97,87 %
31.01.2026 19:00 6,3 °C 5,6 °C 2,2 °C 93 % 1006,0 hPa 0,0 l/m² 0 min 0 min 0 W/m² 16,1 km/h (3 Bft) 95,74 %
31.01.2026 19:02 6,3 °C 5,6 °C 2,2 °C 93 % 1006,0 hPa 0,0 l/m² 0 min 0 min 0 W/m² 12,9 km/h (3 Bft) 97,83 %
31.01.2026 19:04 6,3 °C 5,6 °C 2,2 °C 93 % 1006,0 hPa 0,0 l/m² 0 min 0 min 0 W/m² 9,7 km/h (2 Bft) 93,75 %
31.01.2026 19:06 6,3 °C 5,6 °C 2,2 °C 93 % 1006,1 hPa 0,0 l/m² 0 min 0 min 0 W/m² 12,9 km/h (3 Bft) 91,49 %
31.01.2026 19:08 6,3 °C 5,6 °C 2,2 °C 93 % 1006,1 hPa 0,0 l/m² 0 min 0 min 0 W/m² 16,1 km/h (3 Bft) 95,74 %
31.01.2026 19:10 6,3 °C 5,6 °C 2,2 °C 93 % 1006,1 hPa 0,0 l/m² 0 min 0 min 0 W/m² 9,7 km/h (2 Bft) 93,62 %
31.01.2026 19:12 6,3 °C 5,6 °C 2,2 °C 93 % 1006,1 hPa 0,0 l/m² 0 min 0 min 0 W/m² 16,1 km/h (3 Bft) 91,49 %
31.01.2026 19:14 6,3 °C 5,6 °C 2,2 °C 93 % 1006,1 hPa 0,0 l/m² 0 min 0 min 0 W/m² 12,9 km/h (3 Bft) 93,48 %
31.01.2026 19:16 6,3 °C 5,6 °C 2,2 °C 93 % 1006,1 hPa 0,0 l/m² 0 min 0 min 0 W/m² 12,9 km/h (3 Bft) 93,62 %
31.01.2026 19:18 6,3 °C 5,6 °C 2,2 °C 93 % 1006,0 hPa 0,0 l/m² 0 min 0 min 0 W/m² 16,1 km/h (3 Bft) 93,62 %
31.01.2026 19:20 6,2 °C 5,6 °C 2,2 °C 93 % 1006,1 hPa 0,0 l/m² 0 min 0 min 0 W/m² 12,9 km/h (3 Bft) 91,49 %
31.01.2026 19:22 6,2 °C 5,6 °C 2,2 °C 93 % 1006,1 hPa 0,0 l/m² 0 min 0 min 0 W/m² 12,9 km/h (3 Bft) 93,62 %
31.01.2026 19:24 6,2 °C 5,6 °C 2,2 °C 93 % 1006,1 hPa 0,0 l/m² 0 min 0 min 0 W/m² 12,9 km/h (3 Bft) 95,74 %
31.01.2026 19:26 6,2 °C 5,6 °C 2,2 °C 93 % 1006,1 hPa 0,0 l/m² 0 min 0 min 0 W/m² 12,9 km/h (3 Bft) 93,48 %
31.01.2026 19:28 6,2 °C 5,6 °C 2,2 °C 93 % 1006,1 hPa 0,0 l/m² 0 min 0 min 0 W/m² 12,9 km/h (3 Bft) 93,62 %
31.01.2026 19:30 6,2 °C 5,6 °C 2,2 °C 93 % 1006,1 hPa 0,0 l/m² 0 min 0 min 0 W/m² 19,3 km/h (3 Bft) 91,49 %
31.01.2026 19:32 6,2 °C 5,6 °C 2,2 °C 93 % 1006,1 hPa 0,0 l/m² 0 min 0 min 0 W/m² 6,4 km/h (2 Bft) 93,62 %
31.01.2026 19:34 6,2 °C 5,6 °C 2,2 °C 93 % 1006,2 hPa 0,0 l/m² 0 min 0 min 0 W/m² 12,9 km/h (3 Bft) 91,49 %
31.01.2026 19:36 6,2 °C 5,6 °C 2,2 °C 93 % 1006,2 hPa 0,0 l/m² 0 min 0 min 0 W/m² 16,1 km/h (3 Bft) 95,74 %
31.01.2026 19:38 6,2 °C 5,6 °C 2,2 °C 93 % 1006,2 hPa 0,0 l/m² 0 min 0 min 0 W/m² 12,9 km/h (3 Bft) 95,65 %
31.01.2026 19:40 6,2 °C 5,6 °C 2,2 °C 93 % 1006,2 hPa 0,0 l/m² 0 min 0 min 0 W/m² 12,9 km/h (3 Bft) 95,74 %
31.01.2026 19:42 6,1 °C 5,6 °C 2,2 °C 93 % 1006,3 hPa 0,0 l/m² 0 min 0 min 0 W/m² 12,9 km/h (3 Bft) 97,87 %
31.01.2026 19:44 6,1 °C 5,6 °C 2,2 °C 93 % 1006,3 hPa 0,0 l/m² 0 min 0 min 0 W/m² 6,4 km/h (2 Bft) 93,62 %
31.01.2026 19:46 6,1 °C 5,6 °C 2,2 °C 93 % 1006,3 hPa 0,0 l/m² 0 min 0 min 0 W/m² 12,9 km/h (3 Bft) 95,74 %
31.01.2026 19:48 6,1 °C 5,6 °C 2,2 °C 93 % 1006,3 hPa 0,0 l/m² 0 min 0 min 0 W/m² 16,1 km/h (3 Bft) 97,83 %
31.01.2026 19:50 6,1 °C 5,6 °C 2,2 °C 93 % 1006,3 hPa 0,0 l/m² 0 min 0 min 0 W/m² 12,9 km/h (3 Bft) 97,87 %
31.01.2026 19:52 6,1 °C 5,6 °C 2,2 °C 93 % 1006,3 hPa 0,0 l/m² 0 min 0 min 0 W/m² 16,1 km/h (3 Bft) 97,87 %
31.01.2026 19:54 6,1 °C 5,6 °C 2,2 °C 93 % 1006,4 hPa 0,0 l/m² 0 min 0 min 0 W/m² 12,9 km/h (3 Bft) 97,87 %
31.01.2026 19:56 6,1 °C 5,6 °C 2,2 °C 93 % 1006,4 hPa 0,0 l/m² 0 min 0 min 0 W/m² 12,9 km/h (3 Bft) 97,87 %
31.01.2026 19:58 6,1 °C 5,6 °C 2,2 °C 93 % 1006,4 hPa 0,0 l/m² 0 min 0 min 0 W/m² 16,1 km/h (3 Bft) 97,87 %
31.01.2026 20:00 6,1 °C 5,6 °C 2,2 °C 93 % 1006,4 hPa 0,0 l/m² 0 min 0 min 0 W/m² 19,3 km/h (3 Bft) 100,00 %
31.01.2026 20:02 6,1 °C 5,6 °C 2,2 °C 93 % 1006,5 hPa 0,0 l/m² 0 min 0 min 0 W/m² 12,9 km/h (3 Bft) 100,00 %
31.01.2026 20:04 6,1 °C 5,6 °C 2,2 °C 93 % 1006,4 hPa 0,0 l/m² 0 min 0 min 0 W/m² 16,1 km/h (3 Bft) 97,92 %
31.01.2026 20:06 6,1 °C 5,6 °C 2,2 °C 93 % 1006,5 hPa 0,0 l/m² 0 min 0 min 0 W/m² 6,4 km/h (2 Bft) 97,87 %
31.01.2026 20:08 6,1 °C 5,6 °C 2,2 °C 93 % 1006,5 hPa 0,0 l/m² 0 min 0 min 0 W/m² 16,1 km/h (3 Bft) 97,87 %
31.01.2026 20:10 6,1 °C 5,6 °C 2,2 °C 93 % 1006,4 hPa 0,0 l/m² 0 min 0 min 0 W/m² 19,3 km/h (3 Bft) 97,87 %
31.01.2026 20:12 6,0 °C 5,6 °C 2,2 °C 93 % 1006,5 hPa 0,0 l/m² 0 min 0 min 0 W/m² 6,4 km/h (2 Bft) 100,00 %
31.01.2026 20:14 6,0 °C 5,6 °C 2,2 °C 93 % 1006,6 hPa 0,0 l/m² 0 min 0 min 0 W/m² 16,1 km/h (3 Bft) 100,00 %
31.01.2026 20:16 6,0 °C 5,6 °C 2,2 °C 93 % 1006,6 hPa 0,0 l/m² 0 min 0 min 0 W/m² 16,1 km/h (3 Bft) 100,00 %
31.01.2026 20:18 6,0 °C 5,6 °C 2,2 °C 93 % 1006,6 hPa 0,0 l/m² 0 min 0 min 0 W/m² 16,1 km/h (3 Bft) 97,87 %
31.01.2026 20:20 6,0 °C 5,0 °C 2,2 °C 93 % 1006,6 hPa 0,0 l/m² 0 min 0 min 0 W/m² 6,4 km/h (2 Bft) 100,00 %
31.01.2026 20:22 5,9 °C 5,0 °C 2,2 °C 93 % 1006,6 hPa 0,0 l/m² 0 min 0 min 0 W/m² 12,9 km/h (3 Bft) 100,00 %
31.01.2026 20:24 5,9 °C 5,0 °C 2,2 °C 93 % 1006,6 hPa 0,0 l/m² 0 min 0 min 0 W/m² 16,1 km/h (3 Bft) 100,00 %
31.01.2026 20:26 5,9 °C 5,0 °C 2,2 °C 93 % 1006,6 hPa 0,0 l/m² 0 min 0 min 0 W/m² 16,1 km/h (3 Bft) 100,00 %
31.01.2026 20:28 5,9 °C 5,0 °C 2,2 °C 93 % 1006,6 hPa 0,0 l/m² 0 min 0 min 0 W/m² 12,9 km/h (3 Bft) 97,87 %
31.01.2026 20:30 5,9 °C 5,0 °C 2,2 °C 92 % 1006,6 hPa 0,0 l/m² 0 min 0 min 0 W/m² 12,9 km/h (3 Bft) 100,00 %
31.01.2026 20:32 5,9 °C 5,0 °C 2,2 °C 93 % 1006,7 hPa 0,0 l/m² 0 min 0 min 0 W/m² 12,9 km/h (3 Bft) 100,00 %
31.01.2026 20:34 5,9 °C 5,0 °C 2,2 °C 93 % 1006,7 hPa 0,0 l/m² 0 min 0 min 0 W/m² 16,1 km/h (3 Bft) 100,00 %
31.01.2026 20:36 5,9 °C 5,0 °C 1,7 °C 93 % 1006,7 hPa 0,0 l/m² 0 min 0 min 0 W/m² 12,9 km/h (3 Bft) 100,00 %
31.01.2026 20:38 5,9 °C 5,0 °C 1,7 °C 93 % 1006,7 hPa 0,0 l/m² 0 min 0 min 0 W/m² 12,9 km/h (3 Bft) 100,00 %
31.01.2026 20:40 5,9 °C 5,0 °C 1,7 °C 93 % 1006,7 hPa 0,0 l/m² 0 min 0 min 0 W/m² 19,3 km/h (3 Bft) 100,00 %
31.01.2026 20:42 5,8 °C 5,0 °C 2,2 °C 93 % 1006,7 hPa 0,0 l/m² 0 min 0 min 0 W/m² 16,1 km/h (3 Bft) 100,00 %
31.01.2026 20:44 5,9 °C 5,0 °C 1,7 °C 93 % 1006,7 hPa 0,0 l/m² 0 min 0 min 0 W/m² 12,9 km/h (3 Bft) 100,00 %
31.01.2026 20:46 5,8 °C 5,0 °C 1,7 °C 93 % 1006,7 hPa 0,0 l/m² 0 min 0 min 0 W/m² 19,3 km/h (3 Bft) 100,00 %
31.01.2026 20:48 5,8 °C 5,0 °C 1,7 °C 93 % 1006,8 hPa 0,0 l/m² 0 min 0 min 0 W/m² 16,1 km/h (3 Bft) 100,00 %
31.01.2026 20:50 5,8 °C 5,0 °C 1,7 °C 93 % 1006,7 hPa 0,0 l/m² 0 min 0 min 0 W/m² 12,9 km/h (3 Bft) 100,00 %
31.01.2026 20:52 5,8 °C 5,0 °C 1,7 °C 93 % 1006,8 hPa 0,0 l/m² 0 min 0 min 0 W/m² 16,1 km/h (3 Bft) 95,74 %
31.01.2026 20:54 5,8 °C 5,0 °C 1,7 °C 93 % 1006,8 hPa 0,0 l/m² 0 min 0 min 0 W/m² 16,1 km/h (3 Bft) 100,00 %
31.01.2026 20:56 5,8 °C 5,0 °C 1,7 °C 93 % 1006,8 hPa 0,0 l/m² 0 min 0 min 0 W/m² 12,9 km/h (3 Bft) 93,62 %
31.01.2026 20:58 5,8 °C 5,0 °C 1,7 °C 93 % 1006,8 hPa 0,0 l/m² 0 min 0 min 0 W/m² 16,1 km/h (3 Bft) 87,23 %
31.01.2026 21:00 5,8 °C 5,0 °C 1,7 °C 93 % 1006,9 hPa 0,0 l/m² 0 min 0 min 0 W/m² 16,1 km/h (3 Bft) 62,50 %
31.01.2026 21:02 5,8 °C 5,0 °C 1,7 °C 93 % 1006,9 hPa 0,0 l/m² 0 min 0 min 0 W/m² 12,9 km/h (3 Bft) 97,87 %
31.01.2026 21:04 5,8 °C 5,0 °C 1,7 °C 93 % 1006,9 hPa 0,0 l/m² 0 min 0 min 0 W/m² 16,1 km/h (3 Bft) 95,83 %
31.01.2026 21:06 5,8 °C 5,0 °C 1,7 °C 93 % 1006,9 hPa 0,0 l/m² 0 min 0 min 0 W/m² 12,9 km/h (3 Bft) 97,87 %
31.01.2026 21:08 5,8 °C 5,0 °C 1,7 °C 93 % 1006,9 hPa 0,0 l/m² 0 min 0 min 0 W/m² 12,9 km/h (3 Bft) 97,87 %
31.01.2026 21:10 5,8 °C 5,0 °C 1,7 °C 93 % 1006,9 hPa 0,0 l/m² 0 min 0 min 0 W/m² 16,1 km/h (3 Bft) 95,74 %
31.01.2026 21:12 5,8 °C 5,0 °C 1,7 °C 93 % 1006,9 hPa 0,0 l/m² 0 min 0 min 0 W/m² 12,9 km/h (3 Bft) 97,83 %
31.01.2026 21:14 5,8 °C 5,0 °C 1,7 °C 93 % 1006,8 hPa 0,0 l/m² 0 min 0 min 0 W/m² 16,1 km/h (3 Bft) 97,87 %
31.01.2026 21:16 5,8 °C 5,0 °C 1,7 °C 93 % 1006,9 hPa 0,0 l/m² 0 min 0 min 0 W/m² 16,1 km/h (3 Bft) 93,62 %
31.01.2026 21:18 5,8 °C 5,0 °C 1,7 °C 93 % 1006,9 hPa 0,0 l/m² 0 min 0 min 0 W/m² 22,5 km/h (4 Bft) 95,74 %
31.01.2026 21:20 5,7 °C 5,0 °C 1,7 °C 93 % 1006,9 hPa 0,0 l/m² 0 min 0 min 0 W/m² 16,1 km/h (3 Bft) 97,87 %
31.01.2026 21:22 5,8 °C 5,0 °C 1,7 °C 93 % 1006,9 hPa 0,0 l/m² 0 min 0 min 0 W/m² 19,3 km/h (3 Bft) 97,87 %
31.01.2026 21:24 5,7 °C 5,0 °C 1,7 °C 93 % 1006,9 hPa 0,0 l/m² 0 min 0 min 0 W/m² 19,3 km/h (3 Bft) 93,48 %
31.01.2026 21:26 5,7 °C 5,0 °C 1,7 °C 93 % 1006,9 hPa 0,0 l/m² 0 min 0 min 0 W/m² 25,7 km/h (4 Bft) 95,74 %
31.01.2026 21:28 5,7 °C 5,0 °C 1,7 °C 93 % 1007,0 hPa 0,0 l/m² 0 min 0 min 0 W/m² 12,9 km/h (3 Bft) 97,87 %
31.01.2026 21:30 5,7 °C 5,0 °C 1,7 °C 93 % 1007,1 hPa 0,0 l/m² 0 min 0 min 0 W/m² 19,3 km/h (3 Bft) 97,87 %
31.01.2026 21:32 5,7 °C 5,0 °C 1,7 °C 93 % 1007,1 hPa 0,0 l/m² 0 min 0 min 0 W/m² 16,1 km/h (3 Bft) 97,87 %
31.01.2026 21:34 5,7 °C 5,0 °C 1,7 °C 93 % 1007,1 hPa 0,0 l/m² 0 min 0 min 0 W/m² 19,3 km/h (3 Bft) 97,83 %
31.01.2026 21:36 5,7 °C 5,0 °C 1,7 °C 93 % 1007,1 hPa 0,0 l/m² 0 min 0 min 0 W/m² 19,3 km/h (3 Bft) 93,62 %
31.01.2026 21:38 5,7 °C 5,0 °C 1,7 °C 93 % 1007,1 hPa 0,0 l/m² 0 min 0 min 0 W/m² 16,1 km/h (3 Bft) 97,87 %
31.01.2026 21:40 5,7 °C 5,0 °C 1,7 °C 93 % 1007,1 hPa 0,0 l/m² 0 min 0 min 0 W/m² 16,1 km/h (3 Bft) 95,74 %
31.01.2026 21:42 5,7 °C 5,0 °C 1,7 °C 93 % 1007,2 hPa 0,0 l/m² 0 min 0 min 0 W/m² 12,9 km/h (3 Bft) 97,87 %
31.01.2026 21:44 5,7 °C 5,0 °C 1,7 °C 93 % 1007,1 hPa 0,0 l/m² 0 min 0 min 0 W/m² 12,9 km/h (3 Bft) 97,87 %
31.01.2026 21:46 5,7 °C 5,0 °C 1,7 °C 93 % 1007,2 hPa 0,0 l/m² 0 min 0 min 0 W/m² 16,1 km/h (3 Bft) 97,83 %
31.01.2026 21:48 5,7 °C 5,0 °C 1,7 °C 93 % 1007,2 hPa 0,0 l/m² 0 min 0 min 0 W/m² 19,3 km/h (3 Bft) 97,87 %
31.01.2026 21:50 5,7 °C 5,0 °C 1,7 °C 93 % 1007,1 hPa 0,0 l/m² 0 min 0 min 0 W/m² 19,3 km/h (3 Bft) 97,87 %
31.01.2026 21:52 5,7 °C 5,0 °C 1,7 °C 93 % 1007,1 hPa 0,0 l/m² 0 min 0 min 0 W/m² 12,9 km/h (3 Bft) 97,87 %
31.01.2026 21:54 5,6 °C 5,0 °C 1,7 °C 93 % 1007,1 hPa 0,0 l/m² 0 min 0 min 0 W/m² 16,1 km/h (3 Bft) 97,87 %
31.01.2026 21:56 5,6 °C 5,0 °C 1,7 °C 93 % 1007,1 hPa 0,0 l/m² 0 min 0 min 0 W/m² 16,1 km/h (3 Bft) 97,87 %
31.01.2026 21:58 5,6 °C 5,0 °C 1,7 °C 93 % 1007,1 hPa 0,0 l/m² 0 min 0 min 0 W/m² 19,3 km/h (3 Bft) 97,83 %
31.01.2026 22:00 5,6 °C 5,0 °C 1,7 °C 93 % 1007,1 hPa 0,0 l/m² 0 min 0 min 0 W/m² 16,1 km/h (3 Bft) 97,87 %
31.01.2026 22:02 5,6 °C 5,0 °C 1,7 °C 93 % 1007,2 hPa 0,0 l/m² 0 min 0 min 0 W/m² 16,1 km/h (3 Bft) 97,87 %
31.01.2026 22:04 5,6 °C 5,0 °C 1,7 °C 93 % 1007,2 hPa 0,0 l/m² 0 min 0 min 0 W/m² 12,9 km/h (3 Bft) 93,75 %
31.01.2026 22:06 5,6 °C 5,0 °C 1,7 °C 93 % 1007,2 hPa 0,0 l/m² 0 min 0 min 0 W/m² 16,1 km/h (3 Bft) 95,74 %
31.01.2026 22:08 5,6 °C 5,0 °C 1,7 °C 93 % 1007,3 hPa 0,0 l/m² 0 min 0 min 0 W/m² 12,9 km/h (3 Bft) 95,74 %
31.01.2026 22:10 5,6 °C 5,0 °C 1,7 °C 93 % 1007,2 hPa 0,0 l/m² 0 min 0 min 0 W/m² 12,9 km/h (3 Bft) 95,65 %
31.01.2026 22:12 5,6 °C 5,0 °C 1,7 °C 93 % 1007,3 hPa 0,0 l/m² 0 min 0 min 0 W/m² 12,9 km/h (3 Bft) 93,62 %
31.01.2026 22:14 5,6 °C 5,0 °C 1,7 °C 93 % 1007,4 hPa 0,0 l/m² 0 min 0 min 0 W/m² 19,3 km/h (3 Bft) 95,74 %
31.01.2026 22:16 5,6 °C 5,0 °C 1,7 °C 93 % 1007,4 hPa 0,0 l/m² 0 min 0 min 0 W/m² 16,1 km/h (3 Bft) 95,45 %
31.01.2026 22:18 5,6 °C 5,0 °C 1,7 °C 93 % 1007,4 hPa 0,0 l/m² 0 min 0 min 0 W/m² 12,9 km/h (3 Bft) 97,87 %
31.01.2026 22:20 5,6 °C 5,0 °C 1,7 °C 93 % 1007,5 hPa 0,0 l/m² 0 min 0 min 0 W/m² 9,7 km/h (2 Bft) 97,83 %
31.01.2026 22:22 5,6 °C 5,0 °C 1,7 °C 93 % 1007,4 hPa 0,0 l/m² 0 min 0 min 0 W/m² 16,1 km/h (3 Bft) 97,87 %
31.01.2026 22:24 5,6 °C 5,0 °C 1,7 °C 93 % 1007,4 hPa 0,0 l/m² 0 min 0 min 0 W/m² 9,7 km/h (2 Bft) 95,74 %
31.01.2026 22:26 5,5 °C 5,0 °C 1,7 °C 93 % 1007,4 hPa 0,0 l/m² 0 min 0 min 0 W/m² 19,3 km/h (3 Bft) 100,00 %
31.01.2026 22:28 5,5 °C 5,0 °C 1,7 °C 93 % 1007,4 hPa 0,0 l/m² 0 min 0 min 0 W/m² 19,3 km/h (3 Bft) 97,87 %
31.01.2026 22:30 5,5 °C 5,0 °C 1,7 °C 93 % 1007,4 hPa 0,0 l/m² 0 min 0 min 0 W/m² 16,1 km/h (3 Bft) 97,83 %
31.01.2026 22:32 5,5 °C 5,0 °C 1,7 °C 93 % 1007,4 hPa 0,0 l/m² 0 min 0 min 0 W/m² 16,1 km/h (3 Bft) 97,87 %
31.01.2026 22:34 5,5 °C 5,0 °C 1,7 °C 93 % 1007,4 hPa 0,0 l/m² 0 min 0 min 0 W/m² 16,1 km/h (3 Bft) 97,87 %
31.01.2026 22:36 5,5 °C 5,0 °C 1,7 °C 93 % 1007,5 hPa 0,0 l/m² 0 min 0 min 0 W/m² 12,9 km/h (3 Bft) 97,87 %
31.01.2026 22:38 5,5 °C 5,0 °C 1,7 °C 93 % 1007,5 hPa 0,0 l/m² 0 min 0 min 0 W/m² 16,1 km/h (3 Bft) 93,62 %
31.01.2026 22:40 5,4 °C 5,0 °C 1,7 °C 93 % 1007,5 hPa 0,0 l/m² 0 min 0 min 0 W/m² 22,5 km/h (4 Bft) 93,62 %
31.01.2026 22:42 5,4 °C 5,0 °C 1,7 °C 93 % 1007,5 hPa 0,0 l/m² 0 min 0 min 0 W/m² 16,1 km/h (3 Bft) 90,00 %
31.01.2026 22:44 5,4 °C 5,0 °C 1,7 °C 93 % 1007,4 hPa 0,0 l/m² 0 min 0 min 0 W/m² 19,3 km/h (3 Bft) 100,00 %
31.01.2026 22:46 5,4 °C 5,0 °C 1,7 °C 93 % 1007,5 hPa 0,0 l/m² 0 min 0 min 0 W/m² 22,5 km/h (4 Bft) 95,74 %
31.01.2026 22:48 5,4 °C 5,0 °C 1,7 °C 93 % 1007,5 hPa 0,0 l/m² 0 min 0 min 0 W/m² 16,1 km/h (3 Bft) 97,87 %
31.01.2026 22:50 5,4 °C 5,0 °C 1,7 °C 93 % 1007,5 hPa 0,0 l/m² 0 min 0 min 0 W/m² 6,4 km/h (2 Bft) 93,62 %
31.01.2026 22:55 5,4 °C 5,0 °C 1,7 °C 93 % 1007,6 hPa 0,0 l/m² 0 min 0 min 0 W/m² 12,9 km/h (3 Bft) 100,00 %
31.01.2026 22:56 5,4 °C 5,0 °C 1,7 °C 93 % 1007,6 hPa 0,0 l/m² 0 min 0 min 0 W/m² 16,1 km/h (3 Bft) 100,00 %
31.01.2026 22:58 5,4 °C 5,0 °C 1,7 °C 93 % 1007,6 hPa 0,0 l/m² 0 min 0 min 0 W/m² 16,1 km/h (3 Bft) 95,74 %
31.01.2026 23:00 5,4 °C 5,0 °C 1,7 °C 93 % 1007,6 hPa 0,0 l/m² 0 min 0 min 0 W/m² 19,3 km/h (3 Bft) 97,87 %
31.01.2026 23:02 5,4 °C 5,0 °C 1,7 °C 93 % 1007,5 hPa 0,0 l/m² 0 min 0 min 0 W/m² 19,3 km/h (3 Bft) 100,00 %
31.01.2026 23:04 5,4 °C 4,4 °C 1,7 °C 93 % 1007,5 hPa 0,0 l/m² 0 min 0 min 0 W/m² 16,1 km/h (3 Bft) 97,87 %
31.01.2026 23:06 5,4 °C 4,4 °C 1,7 °C 93 % 1007,5 hPa 0,0 l/m² 0 min 0 min 0 W/m² 16,1 km/h (3 Bft) 96,55 %
31.01.2026 23:08 5,4 °C 4,4 °C 1,7 °C 93 % 1007,5 hPa 0,0 l/m² 0 min 0 min 0 W/m² 19,3 km/h (3 Bft) 100,00 %
31.01.2026 23:10 5,3 °C 4,4 °C 1,7 °C 93 % 1007,6 hPa 0,0 l/m² 0 min 0 min 0 W/m² 6,4 km/h (2 Bft) 100,00 %
31.01.2026 23:12 5,3 °C 4,4 °C 1,7 °C 93 % 1007,5 hPa 0,0 l/m² 0 min 0 min 0 W/m² 19,3 km/h (3 Bft) 95,74 %
31.01.2026 23:14 5,3 °C 4,4 °C 1,1 °C 93 % 1007,5 hPa 0,0 l/m² 0 min 0 min 0 W/m² 19,3 km/h (3 Bft) 95,74 %
31.01.2026 23:16 5,3 °C 4,4 °C 1,1 °C 93 % 1007,5 hPa 0,0 l/m² 0 min 0 min 0 W/m² 19,3 km/h (3 Bft) 52,38 %
31.01.2026 23:18 5,3 °C 4,4 °C 1,1 °C 93 % 1007,5 hPa 0,0 l/m² 0 min 0 min 0 W/m² 12,9 km/h (3 Bft) 97,83 %
31.01.2026 23:20 5,2 °C 4,4 °C 1,1 °C 93 % 1007,5 hPa 0,0 l/m² 0 min 0 min 0 W/m² 19,3 km/h (3 Bft) 97,87 %
31.01.2026 23:22 5,2 °C 4,4 °C 1,1 °C 93 % 1007,5 hPa 0,0 l/m² 0 min 0 min 0 W/m² 12,9 km/h (3 Bft) 97,87 %
31.01.2026 23:24 5,2 °C 4,4 °C 1,1 °C 93 % 1007,6 hPa 0,0 l/m² 0 min 0 min 0 W/m² 12,9 km/h (3 Bft) 97,87 %
31.01.2026 23:26 5,2 °C 4,4 °C 1,1 °C 93 % 1007,5 hPa 0,0 l/m² 0 min 0 min 0 W/m² 19,3 km/h (3 Bft) 97,87 %
31.01.2026 23:28 5,1 °C 4,4 °C 1,1 °C 93 % 1007,6 hPa 0,0 l/m² 0 min 0 min 0 W/m² 16,1 km/h (3 Bft) 100,00 %
31.01.2026 23:30 5,1 °C 3,9 °C 1,1 °C 93 % 1007,6 hPa 0,0 l/m² 0 min 0 min 0 W/m² 19,3 km/h (3 Bft) 100,00 %
31.01.2026 23:32 5,1 °C 3,9 °C 1,1 °C 93 % 1007,6 hPa 0,0 l/m² 0 min 0 min 0 W/m² 19,3 km/h (3 Bft) 100,00 %
31.01.2026 23:34 5,1 °C 3,9 °C 1,1 °C 93 % 1007,6 hPa 0,0 l/m² 0 min 0 min 0 W/m² 12,9 km/h (3 Bft) 97,87 %
31.01.2026 23:36 5,0 °C 3,9 °C 1,1 °C 93 % 1007,7 hPa 0,0 l/m² 0 min 0 min 0 W/m² 16,1 km/h (3 Bft) 100,00 %
31.01.2026 23:38 5,0 °C 3,9 °C 1,1 °C 93 % 1007,7 hPa 0,0 l/m² 0 min 0 min 0 W/m² 12,9 km/h (3 Bft) 97,87 %
31.01.2026 23:40 4,9 °C 3,9 °C 1,1 °C 93 % 1007,7 hPa 0,0 l/m² 0 min 0 min 0 W/m² 12,9 km/h (3 Bft) 100,00 %
31.01.2026 23:42 4,9 °C 3,9 °C 1,1 °C 93 % 1007,7 hPa 0,0 l/m² 0 min 0 min 0 W/m² 12,9 km/h (3 Bft) 100,00 %
31.01.2026 23:44 4,9 °C 3,9 °C 1,1 °C 93 % 1007,8 hPa 0,0 l/m² 0 min 0 min 0 W/m² 16,1 km/h (3 Bft) 100,00 %
31.01.2026 23:46 4,9 °C 3,9 °C 1,1 °C 93 % 1007,8 hPa 0,0 l/m² 0 min 0 min 0 W/m² 16,1 km/h (3 Bft) 100,00 %
31.01.2026 23:48 4,8 °C 3,9 °C 0,6 °C 93 % 1007,8 hPa 0,0 l/m² 0 min 0 min 0 W/m² 12,9 km/h (3 Bft) 97,87 %
31.01.2026 23:50 4,8 °C 3,9 °C 0,6 °C 93 % 1007,8 hPa 0,0 l/m² 0 min 0 min 0 W/m² 16,1 km/h (3 Bft) 97,87 %
31.01.2026 23:52 4,8 °C 3,9 °C 0,6 °C 93 % 1007,8 hPa 0,0 l/m² 0 min 0 min 0 W/m² 19,3 km/h (3 Bft) 95,65 %
31.01.2026 23:54 4,8 °C 3,9 °C 0,6 °C 94 % 1007,8 hPa 0,0 l/m² 0 min 0 min 0 W/m² 16,1 km/h (3 Bft) 100,00 %
31.01.2026 23:56 4,8 °C 3,9 °C 0,6 °C 94 % 1007,8 hPa 0,0 l/m² 0 min 0 min 0 W/m² 12,9 km/h (3 Bft) 100,00 %
31.01.2026 23:58 4,7 °C 3,9 °C 0,6 °C 93 % 1007,8 hPa 0,0 l/m² 0 min 0 min 0 W/m² 12,9 km/h (3 Bft) 100,00 %
_ Min-Zeit 00:00 00:00 00:00 20:30 01:46 - - - - 16:34 14:36
Minimum _ 3,4 °C 2,8 °C -0,6 °C 92 % 997,9 hPa - - - - 3,2 km/h (1 Bft) 37,50 %
_ Max-Zeit 16:04 14:10 13:58 08:54 23:44 05:52 15:56 05:50 14:08 02:06 00:12
Maximum _ 7,3 °C 8,3 °C 3,3 °C 97 % 1007,8 hPa 0,2 l/m² 4 min 2 min 236 W/m² 35,4 km/h
O (5 Bft)
100,00 %
Durchschnitt _ 5,2 °C 4,8 °C 1,3 °C 94 % 1002,4 hPa #1,0 l/m² #22 min. #34 min. 84 W/m² 16,3 km/h (3 Bft) 97,07 %
© 2026 W. Hausmann